GEFSNGP_prec_meanprecacc_006.txt.gz
Total_Precipitation_Accumulation
0.00 0.00 0.00 0.00 0.00 0.00 0.00 0.00 0.00 0.00 0.00 0.01 0.06 0.15 0.30 0.38 0.20 0.04 0.01 0.05 0.13 0.17 0.12 0.06 0.03 0.02 0.01 0.02 0.01 0.00 0.00 0.00 0.00 0.00 0.00 0.00 0.00 0.00 0.00 0.01 0.01 0.01 0.00 0.00
0.00 0.00 0.00 0.00 0.00 0.00 0.00 0.00 0.00 0.00 0.00 0.01 0.02 0.07 0.18 0.23 0.12 0.03 0.03 0.07 0.08 0.07 0.05 0.03 0.01 0.01 0.01 0.01 0.01 0.01 0.01 0.01 0.01 0.00 0.00 0.00 0.00 0.00 0.01 0.01 0.00 0.00 0.00 0.00
0.00 0.00 0.00 0.00 0.00 0.00 0.00 0.00 0.00 0.00 0.01 0.00 0.01 0.05 0.09 0.13 0.08 0.03 0.03 0.05 0.05 0.04 0.03 0.03 0.03 0.02 0.03 0.03 0.03 0.03 0.03 0.02 0.02 0.01 0.01 0.00 0.00 0.00 0.00 0.00 0.00 0.00 0.00 0.00
0.00 0.00 0.00 0.00 0.00 0.00 0.00 0.00 0.00 0.00 0.00 0.00 0.01 0.02 0.04 0.04 0.04 0.02 0.02 0.03 0.04 0.05 0.06 0.05 0.06 0.06 0.08 0.09 0.08 0.07 0.06 0.05 0.04 0.02 0.01 0.00 0.00 0.00 0.00 0.00 0.00 0.00 0.00 0.00
0.00 0.00 0.00 0.00 0.00 0.00 0.00 0.00 0.00 0.00 0.00 0.00 0.00 0.00 0.01 0.00 0.01 0.02 0.03 0.05 0.07 0.08 0.08 0.08 0.09 0.13 0.17 0.16 0.12 0.09 0.06 0.04 0.02 0.01 0.00 0.00 0.00 0.00 0.00 0.00 0.00 0.00 0.00 0.00
0.00 0.00 0.00 0.00 0.00 0.00 0.00 0.02 0.01 0.00 0.00 0.00 0.00 0.01 0.01 0.00 0.01 0.03 0.05 0.07 0.08 0.09 0.09 0.09 0.10 0.11 0.11 0.08 0.05 0.04 0.02 0.01 0.00 0.00 0.00 0.00 0.00 0.00 0.00 0.00 0.00 0.00 0.00 0.00
0.00 0.01 0.01 0.00 0.00 0.00 0.01 0.03 0.01 0.00 0.00 0.01 0.01 0.00 0.00 0.00 0.01 0.03 0.05 0.07 0.06 0.06 0.07 0.09 0.09 0.08 0.06 0.04 0.02 0.01 0.00 0.00 0.00 0.00 0.00 0.00 0.00 0.00 0.00 0.00 0.00 0.00 0.00 0.00
0.03 0.05 0.05 0.01 0.00 0.00 0.01 0.00 0.00 0.00 0.01 0.02 0.01 0.00 0.00 0.01 0.02 0.03 0.05 0.04 0.03 0.03 0.04 0.04 0.03 0.02 0.01 0.01 0.00 0.00 0.00 0.00 0.00 0.00 0.00 0.00 0.00 0.00 0.00 0.00 0.00 0.00 0.00 0.00
0.06 0.06 0.04 0.01 0.00 0.00 0.00 0.00 0.00 0.00 0.02 0.03 0.01 0.00 0.00 0.02 0.03 0.03 0.03 0.03 0.02 0.02 0.01 0.01 0.01 0.01 0.00 0.00 0.00 0.00 0.00 0.00 0.00 0.00 0.00 0.00 0.00 0.00 0.00 0.00 0.00 0.00 0.00 0.00
0.00 0.00 0.00 0.00 0.00 0.00 0.00 0.00 0.00 0.02 0.03 0.01 0.00 0.00 0.01 0.02 0.02 0.02 0.01 0.01 0.01 0.01 0.01 0.01 0.01 0.00 0.00 0.00 0.00 0.00 0.00 0.00 0.00 0.00 0.00 0.00 0.00 0.00 0.00 0.01 0.00 0.00 0.01 0.01
0.01 0.00 0.01 0.02 0.03 0.02 0.01 0.01 0.01 0.01 0.01 0.00 0.00 0.01 0.01 0.01 0.01 0.01 0.00 0.01 0.01 0.01 0.01 0.01 0.00 0.00 0.00 0.00 0.00 0.00 0.00 0.00 0.00 0.00 0.00 0.00 0.00 0.00 0.01 0.01 0.00 0.00 0.00 0.00
0.03 0.04 0.09 0.11 0.09 0.04 0.03 0.01 0.01 0.01 0.01 0.02 0.01 0.01 0.01 0.01 0.01 0.01 0.01 0.00 0.00 0.00 0.00 0.00 0.00 0.00 0.00 0.00 0.00 0.00 0.00 0.00 0.00 0.00 0.00 0.00 0.00 0.01 0.00 0.00 0.00 0.00 0.00 0.00
0.04 0.05 0.07 0.07 0.05 0.04 0.03 0.02 0.02 0.02 0.03 0.03 0.01 0.01 0.01 0.01 0.01 0.00 0.00 0.00 0.00 0.00 0.00 0.00 0.00 0.00 0.00 0.00 0.00 0.00 0.00 0.00 0.00 0.00 0.00 0.00 0.00 0.01 0.02 0.01 0.00 0.00 0.00 0.00
0.01 0.02 0.03 0.04 0.06 0.06 0.05 0.04 0.02 0.01 0.03 0.02 0.01 0.01 0.00 0.00 0.00 0.00 0.00 0.00 0.00 0.00 0.00 0.00 0.00 0.00 0.00 0.00 0.00 0.00 0.00 0.00 0.00 0.00 0.00 0.00 0.00 0.01 0.01 0.01 0.02 0.01 0.01 0.00
0.02 0.02 0.04 0.07 0.10 0.07 0.05 0.04 0.03 0.02 0.01 0.01 0.01 0.00 0.00 0.00 0.00 0.00 0.00 0.00 0.00 0.00 0.00 0.00 0.00 0.00 0.00 0.00 0.00 0.00 0.00 0.00 0.00 0.00 0.00 0.00 0.00 0.00 0.01 0.01 0.01 0.01 0.01 0.00
0.04 0.03 0.04 0.08 0.11 0.09 0.07 0.06 0.04 0.02 0.01 0.00 0.00 0.00 0.00 0.00 0.00 0.00 0.00 0.00 0.00 0.00 0.00 0.00 0.00 0.00 0.00 0.00 0.00 0.00 0.00 0.00 0.00 0.00 0.00 0.00 0.00 0.00 0.00 0.00 0.01 0.01 0.01 0.00
0.06 0.05 0.05 0.06 0.08 0.09 0.06 0.03 0.02 0.01 0.00 0.00 0.00 0.00 0.00 0.00 0.00 0.00 0.00 0.00 0.00 0.00 0.00 0.00 0.00 0.00 0.00 0.00 0.00 0.00 0.00 0.00 0.00 0.00 0.00 0.00 0.00 0.00 0.00 0.00 0.00 0.00 0.01 0.00
0.09 0.08 0.06 0.06 0.06 0.05 0.03 0.01 0.00 0.00 0.00 0.00 0.00 0.00 0.00 0.00 0.00 0.00 0.00 0.00 0.00 0.00 0.00 0.00 0.00 0.00 0.00 0.00 0.00 0.00 0.00 0.00 0.00 0.00 0.00 0.00 0.00 0.00 0.00 0.00 0.00 0.00 0.00 0.00
0.05 0.03 0.02 0.02 0.01 0.01 0.00 0.00 0.00 0.00 0.00 0.00 0.00 0.00 0.00 0.00 0.00 0.00 0.00 0.00 0.00 0.00 0.00 0.00 0.00 0.00 0.00 0.00 0.00 0.00 0.00 0.00 0.00 0.00 0.00 0.00 0.00 0.00 0.00 0.00 0.00 0.00 0.00 0.00
0.00 0.00 0.00 0.00 0.00 0.00 0.00 0.00 0.00 0.00 0.00 0.00 0.00 0.00 0.00 0.00 0.00 0.00 0.00 0.00 0.00 0.00 0.00 0.00 0.00 0.00 0.00 0.00 0.00 0.00 0.00 0.00 0.00 0.00 0.00 0.00 0.00 0.00 0.00 0.00 0.00 0.00 0.00 0.00
0.00 0.00 0.00 0.00 0.00 0.00 0.00 0.00 0.00 0.00 0.00 0.00 0.00 0.00 0.00 0.00 0.00 0.00 0.00 0.00 0.00 0.00 0.00 0.00 0.00 0.00 0.00 0.00 0.00 0.00 0.00 0.00 0.00 0.00 0.00 0.00 0.00 0.00 0.00 0.00 0.00 0.00 0.00 0.00
0.01 0.00 0.00 0.00 0.00 0.00 0.00 0.00 0.00 0.00 0.00 0.00 0.00 0.00 0.00 0.00 0.00 0.00 0.00 0.00 0.00 0.00 0.00 0.00 0.00 0.00 0.00 0.00 0.00 0.00 0.00 0.00 0.00 0.00 0.00 0.00 0.00 0.00 0.00 0.00 0.00 0.00 0.00 0.00
0.02 0.00 0.00 0.00 0.00 0.00 0.00 0.00 0.00 0.00 0.00 0.00 0.00 0.00 0.00 0.00 0.00 0.00 0.00 0.00 0.00 0.00 0.00 0.00 0.00 0.00 0.00 0.00 0.00 0.00 0.00 0.00 0.00 0.00 0.00 0.00 0.00 0.00 0.00 0.00 0.00 0.00 0.00 0.00
0.04 0.01 0.00 0.00 0.00 0.00 0.00 0.00 0.00 0.00 0.00 0.00 0.00 0.00 0.00 0.00 0.00 0.00 0.00 0.00 0.00 0.00 0.00 0.00 0.00 0.00 0.00 0.00 0.00 0.00 0.00 0.00 0.00 0.00 0.00 0.00 0.00 0.00 0.00 0.00 0.00 0.00 0.00 0.00
0.04 0.02 0.00 0.00 0.00 0.00 0.00 0.00 0.00 0.00 0.00 0.00 0.00 0.00 0.00 0.00 0.00 0.00 0.00 0.00 0.00 0.00 0.00 0.00 0.00 0.00 0.00 0.00 0.00 0.00 0.00 0.00 0.00 0.00 0.00 0.00 0.00 0.00 0.00 0.00 0.00 0.00 0.00 0.00
0.07 0.05 0.02 0.01 0.01 0.00 0.00 0.00 0.00 0.00 0.00 0.00 0.00 0.00 0.00 0.00 0.00 0.00 0.00 0.00 0.00 0.00 0.00 0.00 0.00 0.00 0.00 0.00 0.00 0.00 0.00 0.00 0.00 0.00 0.00 0.00 0.00 0.00 0.00 0.00 0.00 0.00 0.00 0.00
0.13 0.10 0.05 0.05 0.05 0.01 0.00 0.00 0.00 0.00 0.00 0.00 0.00 0.00 0.00 0.00 0.00 0.00 0.00 0.00 0.00 0.00 0.00 0.00 0.00 0.00 0.00 0.00 0.00 0.00 0.00 0.00 0.00 0.00 0.00 0.00 0.00 0.00 0.00 0.00 0.00 0.00 0.00 0.00

GEFSNGP_prec_meanprecacc_012.txt.gz
Total_Precipitation_Accumulation
0.00 0.00 0.00 0.00 0.00 0.01 0.01 0.01 0.01 0.02 0.04 0.07 0.13 0.21 0.34 0.42 0.24 0.09 0.04 0.06 0.14 0.17 0.12 0.07 0.04 0.02 0.02 0.02 0.01 0.01 0.00 0.00 0.01 0.01 0.01 0.01 0.02 0.02 0.03 0.03 0.02 0.01 0.00 0.00
0.00 0.00 0.00 0.00 0.00 0.00 0.00 0.01 0.01 0.03 0.08 0.09 0.15 0.21 0.29 0.32 0.22 0.10 0.05 0.08 0.09 0.08 0.06 0.03 0.02 0.01 0.01 0.02 0.02 0.01 0.02 0.02 0.03 0.04 0.05 0.06 0.05 0.03 0.03 0.02 0.00 0.00 0.00 0.00
0.00 0.00 0.00 0.00 0.00 0.00 0.00 0.00 0.00 0.03 0.06 0.06 0.09 0.16 0.20 0.24 0.20 0.11 0.07 0.06 0.05 0.04 0.04 0.03 0.03 0.03 0.04 0.05 0.06 0.07 0.09 0.10 0.11 0.11 0.09 0.06 0.03 0.01 0.01 0.00 0.00 0.00 0.00 0.00
0.00 0.00 0.00 0.00 0.01 0.01 0.01 0.02 0.02 0.02 0.02 0.01 0.02 0.04 0.06 0.07 0.09 0.06 0.04 0.04 0.04 0.05 0.06 0.06 0.06 0.08 0.11 0.15 0.16 0.17 0.18 0.17 0.14 0.10 0.06 0.03 0.01 0.00 0.00 0.00 0.00 0.00 0.00 0.00
0.00 0.00 0.00 0.00 0.00 0.01 0.02 0.03 0.02 0.01 0.00 0.00 0.00 0.00 0.01 0.01 0.01 0.02 0.03 0.05 0.07 0.09 0.08 0.10 0.13 0.19 0.26 0.28 0.25 0.21 0.16 0.11 0.06 0.03 0.01 0.01 0.00 0.00 0.00 0.00 0.00 0.00 0.00 0.00
0.00 0.01 0.00 0.01 0.01 0.00 0.01 0.04 0.01 0.00 0.00 0.00 0.00 0.01 0.02 0.00 0.01 0.03 0.05 0.08 0.09 0.10 0.12 0.16 0.19 0.21 0.21 0.18 0.14 0.10 0.06 0.03 0.01 0.00 0.00 0.00 0.00 0.00 0.00 0.00 0.00 0.00 0.00 0.00
0.02 0.03 0.03 0.01 0.00 0.00 0.02 0.05 0.01 0.00 0.01 0.02 0.01 0.01 0.00 0.00 0.01 0.03 0.06 0.07 0.07 0.08 0.11 0.14 0.13 0.12 0.09 0.06 0.04 0.02 0.01 0.00 0.00 0.00 0.00 0.00 0.00 0.00 0.00 0.00 0.00 0.00 0.00 0.01
0.08 0.10 0.12 0.03 0.01 0.01 0.02 0.01 0.00 0.00 0.01 0.03 0.01 0.00 0.00 0.01 0.02 0.04 0.05 0.05 0.04 0.05 0.06 0.05 0.04 0.03 0.02 0.01 0.00 0.00 0.00 0.00 0.00 0.00 0.00 0.00 0.00 0.00 0.00 0.00 0.00 0.00 0.00 0.00
0.12 0.14 0.10 0.02 0.02 0.02 0.01 0.01 0.01 0.01 0.02 0.03 0.01 0.00 0.00 0.02 0.03 0.03 0.03 0.03 0.03 0.03 0.02 0.02 0.01 0.01 0.01 0.00 0.00 0.00 0.00 0.00 0.00 0.00 0.00 0.00 0.00 0.00 0.00 0.00 0.00 0.00 0.00 0.00
0.02 0.03 0.02 0.02 0.02 0.02 0.01 0.01 0.02 0.03 0.03 0.02 0.00 0.00 0.01 0.02 0.02 0.02 0.02 0.01 0.01 0.01 0.01 0.02 0.01 0.01 0.00 0.00 0.00 0.00 0.00 0.00 0.00 0.00 0.00 0.00 0.00 0.00 0.00 0.01 0.00 0.00 0.01 0.01
0.01 0.01 0.04 0.06 0.06 0.04 0.03 0.03 0.03 0.02 0.01 0.00 0.00 0.01 0.02 0.01 0.01 0.01 0.01 0.01 0.01 0.02 0.02 0.01 0.00 0.00 0.00 0.00 0.00 0.00 0.00 0.00 0.00 0.00 0.00 0.00 0.00 0.00 0.01 0.01 0.00 0.00 0.01 0.00
0.04 0.05 0.11 0.15 0.12 0.06 0.06 0.04 0.02 0.01 0.01 0.02 0.02 0.02 0.02 0.01 0.01 0.01 0.01 0.01 0.01 0.01 0.01 0.00 0.00 0.00 0.00 0.00 0.00 0.00 0.00 0.00 0.00 0.00 0.00 0.00 0.01 0.01 0.00 0.00 0.00 0.00 0.00 0.00
0.05 0.06 0.09 0.09 0.08 0.06 0.04 0.03 0.02 0.02 0.04 0.04 0.04 0.03 0.03 0.02 0.01 0.01 0.01 0.01 0.01 0.00 0.00 0.00 0.00 0.00 0.00 0.00 0.00 0.00 0.00 0.00 0.00 0.00 0.00 0.00 0.01 0.02 0.02 0.01 0.00 0.00 0.00 0.01
0.02 0.03 0.04 0.06 0.08 0.07 0.05 0.05 0.02 0.03 0.06 0.11 0.09 0.05 0.02 0.01 0.01 0.01 0.01 0.00 0.00 0.00 0.00 0.00 0.00 0.00 0.00 0.00 0.00 0.00 0.00 0.00 0.00 0.00 0.00 0.00 0.00 0.01 0.01 0.02 0.02 0.02 0.01 0.00
0.02 0.03 0.05 0.09 0.11 0.08 0.06 0.06 0.05 0.04 0.06 0.08 0.06 0.03 0.01 0.01 0.01 0.00 0.00 0.00 0.00 0.00 0.00 0.00 0.00 0.00 0.00 0.00 0.00 0.00 0.00 0.00 0.00 0.00 0.00 0.00 0.00 0.00 0.01 0.01 0.01 0.01 0.01 0.00
0.04 0.04 0.05 0.09 0.13 0.12 0.09 0.09 0.07 0.05 0.03 0.02 0.01 0.01 0.01 0.00 0.00 0.00 0.00 0.00 0.00 0.00 0.00 0.00 0.00 0.00 0.00 0.00 0.00 0.00 0.00 0.00 0.00 0.00 0.00 0.00 0.00 0.00 0.00 0.00 0.01 0.01 0.01 0.00
0.06 0.06 0.06 0.07 0.10 0.10 0.07 0.05 0.03 0.02 0.01 0.00 0.00 0.00 0.00 0.00 0.00 0.00 0.00 0.00 0.00 0.00 0.00 0.00 0.00 0.00 0.00 0.00 0.00 0.00 0.00 0.00 0.00 0.00 0.00 0.00 0.00 0.00 0.00 0.00 0.00 0.00 0.01 0.00
0.09 0.08 0.07 0.06 0.07 0.06 0.03 0.01 0.01 0.00 0.00 0.00 0.00 0.00 0.00 0.00 0.00 0.00 0.00 0.00 0.00 0.00 0.00 0.00 0.00 0.00 0.00 0.00 0.00 0.00 0.00 0.00 0.00 0.00 0.00 0.00 0.00 0.00 0.00 0.00 0.00 0.00 0.00 0.00
0.06 0.03 0.03 0.03 0.02 0.01 0.01 0.00 0.00 0.00 0.00 0.00 0.00 0.00 0.00 0.00 0.00 0.00 0.00 0.00 0.00 0.00 0.00 0.00 0.00 0.00 0.00 0.00 0.00 0.00 0.00 0.00 0.00 0.00 0.00 0.00 0.00 0.00 0.00 0.00 0.00 0.00 0.00 0.00
0.01 0.00 0.01 0.01 0.00 0.00 0.00 0.00 0.00 0.00 0.00 0.00 0.00 0.00 0.00 0.00 0.00 0.00 0.00 0.00 0.00 0.00 0.00 0.00 0.00 0.00 0.00 0.00 0.00 0.00 0.00 0.00 0.00 0.00 0.00 0.00 0.00 0.00 0.00 0.00 0.00 0.00 0.00 0.00
0.00 0.00 0.00 0.00 0.00 0.00 0.00 0.00 0.00 0.00 0.00 0.00 0.00 0.00 0.00 0.00 0.00 0.00 0.00 0.00 0.00 0.00 0.00 0.00 0.00 0.00 0.00 0.00 0.00 0.00 0.00 0.00 0.00 0.00 0.00 0.00 0.00 0.00 0.00 0.00 0.00 0.00 0.00 0.00
0.01 0.00 0.00 0.00 0.00 0.00 0.00 0.00 0.00 0.00 0.00 0.00 0.00 0.00 0.00 0.00 0.00 0.00 0.00 0.00 0.00 0.00 0.00 0.00 0.00 0.00 0.00 0.00 0.00 0.00 0.00 0.00 0.00 0.00 0.00 0.00 0.00 0.00 0.00 0.00 0.00 0.00 0.00 0.00
0.02 0.00 0.00 0.00 0.00 0.00 0.00 0.00 0.00 0.00 0.00 0.00 0.00 0.00 0.00 0.00 0.00 0.00 0.00 0.00 0.00 0.00 0.00 0.00 0.00 0.00 0.00 0.00 0.00 0.00 0.00 0.00 0.00 0.00 0.00 0.00 0.00 0.00 0.00 0.00 0.00 0.00 0.00 0.00
0.05 0.01 0.00 0.00 0.00 0.00 0.00 0.00 0.00 0.00 0.00 0.00 0.00 0.00 0.00 0.00 0.00 0.00 0.00 0.00 0.00 0.00 0.00 0.00 0.00 0.00 0.00 0.00 0.00 0.00 0.00 0.00 0.00 0.00 0.00 0.00 0.00 0.00 0.00 0.00 0.00 0.00 0.00 0.00
0.04 0.02 0.00 0.00 0.00 0.00 0.00 0.00 0.00 0.00 0.00 0.00 0.00 0.00 0.00 0.00 0.00 0.00 0.00 0.00 0.00 0.00 0.00 0.00 0.00 0.00 0.00 0.00 0.00 0.00 0.00 0.00 0.00 0.00 0.00 0.00 0.00 0.00 0.00 0.00 0.00 0.00 0.00 0.00
0.08 0.06 0.02 0.01 0.01 0.00 0.00 0.00 0.00 0.00 0.00 0.00 0.00 0.00 0.00 0.00 0.00 0.00 0.00 0.00 0.00 0.00 0.00 0.00 0.00 0.00 0.00 0.00 0.00 0.00 0.00 0.00 0.00 0.00 0.00 0.00 0.00 0.00 0.00 0.00 0.00 0.00 0.00 0.00
0.14 0.11 0.06 0.05 0.05 0.01 0.00 0.00 0.00 0.00 0.00 0.00 0.00 0.00 0.00 0.00 0.00 0.00 0.00 0.00 0.00 0.00 0.00 0.00 0.00 0.00 0.00 0.00 0.00 0.00 0.00 0.00 0.00 0.00 0.00 0.00 0.00 0.00 0.00 0.00 0.00 0.00 0.00 0.00

GEFSNGP_prec_meanprecacc_018.txt.gz
Total_Precipitation_Accumulation
0.00 0.00 0.00 0.00 0.01 0.01 0.01 0.01 0.02 0.03 0.06 0.09 0.15 0.23 0.36 0.43 0.26 0.11 0.06 0.09 0.16 0.20 0.14 0.09 0.05 0.03 0.03 0.03 0.02 0.01 0.01 0.01 0.01 0.01 0.02 0.02 0.02 0.03 0.03 0.04 0.02 0.01 0.01 0.00
0.00 0.00 0.01 0.00 0.00 0.00 0.01 0.01 0.02 0.05 0.11 0.13 0.18 0.23 0.32 0.35 0.24 0.12 0.08 0.10 0.10 0.08 0.06 0.04 0.02 0.02 0.02 0.02 0.02 0.02 0.03 0.04 0.05 0.06 0.07 0.07 0.06 0.04 0.03 0.02 0.01 0.00 0.00 0.00
0.01 0.01 0.01 0.02 0.01 0.01 0.01 0.02 0.04 0.07 0.10 0.11 0.15 0.22 0.28 0.31 0.26 0.15 0.10 0.08 0.06 0.05 0.04 0.04 0.04 0.04 0.05 0.07 0.09 0.10 0.11 0.13 0.15 0.15 0.14 0.10 0.05 0.02 0.01 0.00 0.00 0.00 0.00 0.00
0.00 0.01 0.02 0.02 0.02 0.03 0.03 0.06 0.09 0.08 0.08 0.09 0.10 0.12 0.12 0.12 0.13 0.08 0.05 0.05 0.04 0.06 0.06 0.06 0.07 0.09 0.13 0.18 0.20 0.22 0.25 0.25 0.22 0.17 0.11 0.05 0.02 0.00 0.00 0.00 0.00 0.00 0.00 0.00
0.00 0.00 0.01 0.01 0.01 0.02 0.03 0.05 0.05 0.06 0.06 0.07 0.06 0.05 0.04 0.03 0.02 0.02 0.04 0.06 0.08 0.09 0.09 0.10 0.14 0.22 0.30 0.34 0.33 0.30 0.25 0.18 0.11 0.07 0.03 0.01 0.00 0.00 0.00 0.00 0.00 0.00 0.00 0.00
0.02 0.01 0.01 0.02 0.01 0.01 0.02 0.05 0.03 0.02 0.02 0.02 0.02 0.03 0.03 0.01 0.01 0.03 0.05 0.08 0.09 0.10 0.12 0.17 0.21 0.24 0.26 0.24 0.20 0.14 0.08 0.04 0.02 0.01 0.00 0.00 0.00 0.00 0.00 0.00 0.00 0.00 0.00 0.00
0.04 0.04 0.04 0.02 0.01 0.01 0.03 0.06 0.02 0.02 0.02 0.02 0.02 0.01 0.01 0.01 0.01 0.04 0.06 0.07 0.07 0.08 0.12 0.15 0.15 0.14 0.12 0.09 0.06 0.04 0.02 0.01 0.00 0.00 0.00 0.00 0.00 0.00 0.00 0.00 0.00 0.00 0.00 0.01
0.10 0.12 0.13 0.04 0.02 0.02 0.04 0.03 0.03 0.02 0.02 0.03 0.01 0.00 0.00 0.01 0.02 0.04 0.05 0.05 0.05 0.06 0.07 0.07 0.05 0.04 0.03 0.02 0.01 0.01 0.00 0.00 0.00 0.00 0.00 0.00 0.00 0.00 0.00 0.00 0.00 0.00 0.00 0.00
0.12 0.14 0.10 0.03 0.03 0.04 0.04 0.04 0.03 0.02 0.03 0.03 0.01 0.00 0.00 0.02 0.03 0.03 0.03 0.04 0.04 0.04 0.03 0.03 0.02 0.02 0.01 0.00 0.00 0.00 0.00 0.00 0.00 0.00 0.00 0.00 0.00 0.00 0.00 0.00 0.00 0.00 0.00 0.00
0.02 0.03 0.03 0.03 0.03 0.04 0.03 0.03 0.03 0.03 0.03 0.02 0.00 0.00 0.01 0.02 0.02 0.02 0.02 0.02 0.02 0.02 0.02 0.02 0.01 0.01 0.00 0.00 0.00 0.00 0.00 0.00 0.00 0.00 0.00 0.00 0.00 0.00 0.00 0.01 0.00 0.00 0.01 0.01
0.02 0.02 0.04 0.07 0.06 0.04 0.04 0.04 0.04 0.03 0.02 0.01 0.00 0.01 0.02 0.02 0.01 0.01 0.02 0.02 0.02 0.02 0.02 0.01 0.00 0.00 0.00 0.00 0.00 0.00 0.00 0.00 0.00 0.00 0.00 0.00 0.00 0.00 0.01 0.01 0.00 0.00 0.01 0.00
0.04 0.05 0.12 0.16 0.12 0.07 0.07 0.04 0.03 0.02 0.02 0.02 0.02 0.02 0.02 0.02 0.02 0.02 0.02 0.02 0.02 0.02 0.01 0.00 0.00 0.00 0.00 0.00 0.00 0.00 0.00 0.00 0.00 0.00 0.00 0.00 0.01 0.01 0.00 0.00 0.00 0.00 0.00 0.00
0.05 0.06 0.09 0.09 0.08 0.07 0.05 0.04 0.03 0.03 0.05 0.05 0.05 0.04 0.04 0.04 0.03 0.02 0.02 0.01 0.01 0.00 0.00 0.00 0.00 0.00 0.00 0.00 0.00 0.00 0.00 0.00 0.00 0.00 0.00 0.00 0.01 0.02 0.02 0.01 0.00 0.00 0.00 0.01
0.02 0.03 0.04 0.06 0.08 0.08 0.07 0.07 0.04 0.04 0.08 0.12 0.10 0.06 0.04 0.02 0.02 0.01 0.01 0.00 0.00 0.00 0.00 0.00 0.00 0.00 0.00 0.00 0.00 0.00 0.00 0.00 0.00 0.00 0.00 0.00 0.00 0.01 0.01 0.02 0.02 0.02 0.01 0.00
0.02 0.03 0.06 0.10 0.13 0.11 0.09 0.09 0.08 0.07 0.08 0.10 0.07 0.04 0.02 0.01 0.01 0.00 0.00 0.00 0.00 0.00 0.00 0.00 0.00 0.00 0.00 0.00 0.00 0.00 0.00 0.00 0.00 0.00 0.00 0.00 0.00 0.00 0.01 0.01 0.01 0.01 0.01 0.00
0.04 0.04 0.06 0.11 0.16 0.15 0.13 0.12 0.10 0.07 0.04 0.03 0.02 0.02 0.01 0.00 0.00 0.00 0.00 0.00 0.00 0.00 0.00 0.00 0.00 0.00 0.00 0.00 0.00 0.00 0.00 0.00 0.00 0.00 0.00 0.00 0.00 0.00 0.00 0.00 0.01 0.01 0.01 0.01
0.06 0.06 0.06 0.08 0.11 0.12 0.10 0.06 0.04 0.03 0.01 0.01 0.00 0.00 0.00 0.00 0.00 0.00 0.00 0.00 0.00 0.00 0.00 0.00 0.00 0.00 0.00 0.00 0.00 0.00 0.00 0.00 0.00 0.00 0.00 0.00 0.00 0.00 0.00 0.00 0.00 0.00 0.01 0.01
0.09 0.08 0.07 0.07 0.07 0.06 0.03 0.01 0.01 0.00 0.00 0.00 0.00 0.00 0.00 0.00 0.00 0.00 0.00 0.00 0.00 0.00 0.00 0.00 0.00 0.00 0.00 0.00 0.00 0.00 0.00 0.00 0.00 0.00 0.00 0.00 0.00 0.00 0.00 0.00 0.00 0.00 0.00 0.01
0.06 0.03 0.03 0.03 0.02 0.01 0.01 0.00 0.00 0.00 0.00 0.00 0.00 0.00 0.00 0.00 0.00 0.00 0.00 0.00 0.00 0.00 0.00 0.00 0.00 0.00 0.00 0.00 0.00 0.00 0.00 0.00 0.00 0.00 0.00 0.00 0.00 0.00 0.00 0.00 0.00 0.00 0.00 0.00
0.01 0.00 0.01 0.01 0.01 0.00 0.00 0.00 0.00 0.00 0.00 0.00 0.00 0.00 0.00 0.00 0.00 0.00 0.00 0.00 0.00 0.00 0.00 0.00 0.00 0.00 0.00 0.00 0.00 0.00 0.00 0.00 0.00 0.00 0.00 0.00 0.00 0.00 0.00 0.00 0.00 0.00 0.00 0.00
0.00 0.00 0.00 0.00 0.00 0.00 0.00 0.00 0.00 0.00 0.00 0.00 0.00 0.00 0.00 0.00 0.00 0.00 0.00 0.00 0.00 0.00 0.00 0.00 0.00 0.00 0.00 0.00 0.00 0.00 0.00 0.00 0.00 0.00 0.00 0.00 0.00 0.00 0.00 0.00 0.00 0.00 0.00 0.00
0.01 0.00 0.00 0.00 0.00 0.00 0.00 0.00 0.00 0.00 0.00 0.00 0.00 0.00 0.00 0.00 0.00 0.00 0.00 0.00 0.00 0.00 0.00 0.00 0.00 0.00 0.00 0.00 0.00 0.00 0.00 0.00 0.00 0.00 0.00 0.00 0.00 0.00 0.00 0.00 0.00 0.00 0.00 0.00
0.02 0.00 0.00 0.00 0.00 0.00 0.00 0.00 0.00 0.00 0.00 0.00 0.00 0.00 0.00 0.00 0.00 0.00 0.00 0.00 0.00 0.00 0.00 0.00 0.00 0.00 0.00 0.00 0.00 0.00 0.00 0.00 0.00 0.00 0.00 0.00 0.00 0.00 0.00 0.00 0.00 0.00 0.00 0.00
0.05 0.01 0.00 0.00 0.00 0.00 0.00 0.00 0.00 0.00 0.00 0.00 0.00 0.00 0.00 0.00 0.00 0.00 0.00 0.00 0.00 0.00 0.00 0.00 0.00 0.00 0.00 0.00 0.00 0.00 0.00 0.00 0.00 0.00 0.00 0.00 0.00 0.00 0.00 0.00 0.00 0.00 0.00 0.00
0.04 0.02 0.00 0.00 0.00 0.00 0.00 0.00 0.00 0.00 0.00 0.00 0.00 0.00 0.00 0.00 0.00 0.00 0.00 0.00 0.00 0.00 0.00 0.00 0.00 0.00 0.00 0.00 0.00 0.00 0.00 0.00 0.00 0.00 0.00 0.00 0.00 0.00 0.00 0.00 0.00 0.00 0.00 0.00
0.08 0.06 0.02 0.01 0.01 0.00 0.00 0.00 0.00 0.00 0.00 0.00 0.00 0.00 0.00 0.00 0.00 0.00 0.00 0.00 0.00 0.00 0.00 0.00 0.00 0.00 0.00 0.00 0.00 0.00 0.00 0.00 0.00 0.00 0.00 0.00 0.00 0.00 0.00 0.00 0.00 0.00 0.00 0.00
0.14 0.11 0.06 0.05 0.05 0.01 0.00 0.00 0.00 0.00 0.00 0.00 0.00 0.00 0.00 0.00 0.00 0.00 0.00 0.00 0.00 0.00 0.00 0.00 0.00 0.00 0.00 0.00 0.00 0.00 0.00 0.00 0.00 0.00 0.00 0.00 0.00 0.00 0.00 0.00 0.00 0.00 0.00 0.00

GEFSNGP_prec_meanprecacc_024.txt.gz
Total_Precipitation_Accumulation
0.00 0.00 0.00 0.00 0.01 0.01 0.01 0.01 0.02 0.04 0.08 0.11 0.17 0.24 0.38 0.46 0.29 0.13 0.08 0.10 0.17 0.21 0.15 0.09 0.06 0.04 0.03 0.04 0.02 0.01 0.01 0.01 0.01 0.02 0.02 0.03 0.03 0.03 0.04 0.04 0.03 0.02 0.01 0.00
0.01 0.01 0.01 0.00 0.00 0.00 0.01 0.01 0.03 0.07 0.15 0.18 0.23 0.27 0.36 0.40 0.29 0.15 0.10 0.12 0.12 0.10 0.08 0.05 0.03 0.02 0.02 0.02 0.02 0.03 0.03 0.04 0.06 0.07 0.08 0.08 0.07 0.05 0.04 0.02 0.01 0.00 0.00 0.00
0.02 0.01 0.01 0.02 0.01 0.02 0.02 0.04 0.06 0.11 0.15 0.18 0.22 0.30 0.35 0.39 0.34 0.21 0.14 0.12 0.09 0.08 0.06 0.05 0.05 0.04 0.05 0.07 0.09 0.10 0.12 0.14 0.16 0.17 0.15 0.11 0.06 0.03 0.01 0.00 0.00 0.00 0.00 0.00
0.01 0.01 0.03 0.03 0.02 0.03 0.04 0.08 0.11 0.13 0.15 0.20 0.23 0.24 0.23 0.22 0.20 0.15 0.11 0.09 0.08 0.09 0.09 0.07 0.08 0.09 0.14 0.18 0.21 0.24 0.27 0.27 0.24 0.19 0.13 0.06 0.02 0.01 0.00 0.00 0.00 0.00 0.00 0.01
0.02 0.02 0.03 0.03 0.01 0.03 0.06 0.10 0.09 0.11 0.13 0.16 0.16 0.15 0.13 0.11 0.09 0.08 0.09 0.10 0.11 0.12 0.11 0.12 0.15 0.23 0.31 0.36 0.36 0.33 0.29 0.22 0.14 0.09 0.05 0.02 0.01 0.00 0.00 0.00 0.00 0.00 0.00 0.01
0.05 0.06 0.07 0.07 0.02 0.03 0.06 0.16 0.11 0.09 0.09 0.09 0.10 0.12 0.08 0.05 0.04 0.05 0.08 0.09 0.10 0.11 0.13 0.18 0.22 0.26 0.27 0.27 0.23 0.19 0.12 0.07 0.04 0.02 0.01 0.00 0.00 0.00 0.00 0.00 0.00 0.00 0.00 0.00
0.07 0.10 0.11 0.05 0.03 0.07 0.14 0.19 0.18 0.13 0.09 0.06 0.05 0.04 0.02 0.02 0.02 0.04 0.06 0.08 0.08 0.09 0.13 0.16 0.16 0.15 0.14 0.12 0.10 0.06 0.03 0.02 0.01 0.00 0.00 0.00 0.00 0.00 0.00 0.01 0.00 0.00 0.00 0.01
0.14 0.19 0.21 0.07 0.06 0.11 0.14 0.14 0.17 0.12 0.07 0.06 0.02 0.01 0.01 0.01 0.02 0.04 0.05 0.05 0.05 0.07 0.08 0.08 0.07 0.06 0.06 0.05 0.03 0.02 0.01 0.01 0.00 0.00 0.00 0.00 0.00 0.01 0.01 0.01 0.01 0.01 0.01 0.01
0.16 0.21 0.17 0.07 0.07 0.08 0.10 0.14 0.11 0.08 0.06 0.04 0.01 0.00 0.01 0.02 0.03 0.04 0.04 0.04 0.05 0.05 0.04 0.05 0.04 0.03 0.03 0.02 0.02 0.01 0.01 0.01 0.00 0.00 0.00 0.00 0.00 0.01 0.01 0.01 0.01 0.01 0.01 0.01
0.04 0.07 0.07 0.08 0.09 0.08 0.08 0.09 0.07 0.05 0.04 0.02 0.00 0.00 0.01 0.02 0.03 0.03 0.03 0.03 0.03 0.03 0.03 0.03 0.03 0.02 0.02 0.02 0.01 0.01 0.01 0.01 0.01 0.01 0.00 0.00 0.00 0.01 0.01 0.01 0.01 0.01 0.01 0.01
0.02 0.03 0.07 0.10 0.09 0.07 0.06 0.07 0.06 0.05 0.03 0.01 0.00 0.01 0.02 0.02 0.02 0.02 0.02 0.03 0.02 0.03 0.03 0.02 0.01 0.01 0.01 0.02 0.02 0.02 0.02 0.01 0.01 0.01 0.00 0.01 0.01 0.01 0.01 0.01 0.00 0.01 0.01 0.01
0.04 0.06 0.13 0.18 0.14 0.08 0.09 0.07 0.05 0.04 0.03 0.03 0.03 0.02 0.02 0.02 0.02 0.03 0.03 0.03 0.02 0.02 0.01 0.01 0.00 0.01 0.01 0.01 0.02 0.02 0.02 0.01 0.01 0.00 0.00 0.00 0.01 0.02 0.01 0.00 0.00 0.00 0.00 0.00
0.05 0.06 0.09 0.10 0.08 0.07 0.07 0.06 0.05 0.05 0.06 0.06 0.06 0.06 0.06 0.05 0.04 0.03 0.02 0.02 0.02 0.01 0.01 0.00 0.00 0.00 0.00 0.00 0.01 0.01 0.01 0.01 0.00 0.00 0.00 0.01 0.01 0.03 0.04 0.02 0.01 0.00 0.00 0.01
0.02 0.03 0.04 0.06 0.09 0.08 0.08 0.08 0.06 0.06 0.10 0.13 0.11 0.08 0.06 0.04 0.02 0.02 0.02 0.01 0.00 0.00 0.00 0.00 0.00 0.00 0.00 0.00 0.00 0.00 0.01 0.00 0.00 0.01 0.01 0.01 0.01 0.02 0.02 0.03 0.03 0.02 0.01 0.01
0.02 0.03 0.06 0.10 0.14 0.12 0.11 0.12 0.11 0.09 0.10 0.12 0.08 0.05 0.03 0.02 0.02 0.01 0.01 0.00 0.01 0.00 0.00 0.00 0.00 0.00 0.00 0.00 0.00 0.00 0.00 0.01 0.00 0.00 0.00 0.00 0.00 0.00 0.01 0.01 0.01 0.02 0.02 0.01
0.04 0.04 0.07 0.12 0.17 0.17 0.16 0.16 0.13 0.10 0.06 0.04 0.03 0.02 0.01 0.01 0.01 0.01 0.01 0.01 0.00 0.00 0.00 0.00 0.00 0.00 0.00 0.00 0.00 0.00 0.00 0.00 0.00 0.00 0.00 0.00 0.00 0.00 0.00 0.00 0.01 0.01 0.02 0.01
0.06 0.06 0.07 0.09 0.12 0.14 0.11 0.08 0.05 0.03 0.02 0.01 0.01 0.01 0.00 0.00 0.00 0.00 0.00 0.00 0.00 0.00 0.00 0.00 0.00 0.00 0.00 0.00 0.00 0.00 0.00 0.00 0.00 0.00 0.00 0.00 0.00 0.00 0.00 0.00 0.00 0.01 0.01 0.02
0.09 0.09 0.07 0.07 0.08 0.07 0.04 0.02 0.01 0.01 0.01 0.00 0.00 0.00 0.00 0.00 0.00 0.00 0.00 0.00 0.00 0.00 0.00 0.00 0.00 0.00 0.00 0.00 0.00 0.00 0.00 0.00 0.00 0.00 0.00 0.00 0.00 0.00 0.00 0.00 0.00 0.00 0.01 0.02
0.06 0.04 0.03 0.03 0.02 0.02 0.01 0.01 0.01 0.00 0.00 0.00 0.00 0.00 0.00 0.00 0.00 0.00 0.00 0.00 0.00 0.00 0.00 0.00 0.00 0.00 0.00 0.00 0.00 0.00 0.00 0.00 0.00 0.00 0.00 0.00 0.00 0.00 0.00 0.00 0.00 0.00 0.00 0.01
0.01 0.01 0.01 0.01 0.01 0.01 0.00 0.00 0.00 0.00 0.00 0.00 0.00 0.00 0.00 0.00 0.00 0.00 0.00 0.00 0.00 0.00 0.00 0.00 0.00 0.00 0.00 0.00 0.00 0.00 0.00 0.00 0.00 0.00 0.00 0.00 0.00 0.00 0.00 0.00 0.00 0.00 0.00 0.00
0.01 0.00 0.00 0.00 0.00 0.00 0.00 0.00 0.00 0.00 0.00 0.00 0.00 0.00 0.00 0.00 0.00 0.00 0.00 0.00 0.00 0.00 0.00 0.00 0.00 0.00 0.00 0.00 0.00 0.00 0.00 0.00 0.00 0.00 0.00 0.00 0.00 0.00 0.00 0.00 0.00 0.00 0.00 0.00
0.01 0.00 0.00 0.00 0.00 0.00 0.00 0.00 0.00 0.00 0.00 0.00 0.00 0.00 0.00 0.00 0.00 0.00 0.00 0.00 0.00 0.00 0.00 0.00 0.00 0.00 0.00 0.00 0.00 0.00 0.00 0.00 0.00 0.00 0.00 0.00 0.00 0.00 0.00 0.00 0.00 0.00 0.00 0.00
0.02 0.01 0.00 0.00 0.00 0.00 0.00 0.00 0.00 0.00 0.00 0.00 0.00 0.00 0.00 0.00 0.00 0.00 0.00 0.00 0.00 0.00 0.00 0.00 0.00 0.00 0.00 0.00 0.00 0.00 0.00 0.00 0.00 0.00 0.00 0.00 0.00 0.00 0.00 0.00 0.00 0.00 0.00 0.00
0.05 0.02 0.00 0.00 0.00 0.00 0.00 0.00 0.00 0.00 0.00 0.00 0.00 0.00 0.00 0.00 0.00 0.00 0.00 0.00 0.00 0.00 0.00 0.00 0.00 0.00 0.00 0.00 0.00 0.00 0.00 0.00 0.00 0.00 0.00 0.00 0.00 0.00 0.00 0.00 0.00 0.00 0.00 0.00
0.04 0.02 0.01 0.00 0.00 0.00 0.00 0.00 0.00 0.00 0.00 0.00 0.00 0.00 0.00 0.00 0.00 0.00 0.00 0.00 0.00 0.00 0.00 0.00 0.00 0.00 0.00 0.00 0.00 0.00 0.00 0.00 0.00 0.00 0.00 0.00 0.00 0.00 0.00 0.00 0.00 0.00 0.00 0.00
0.08 0.06 0.02 0.01 0.01 0.00 0.00 0.00 0.00 0.00 0.00 0.00 0.00 0.00 0.00 0.00 0.00 0.00 0.00 0.00 0.00 0.00 0.00 0.00 0.00 0.00 0.00 0.00 0.00 0.00 0.00 0.00 0.00 0.00 0.00 0.00 0.00 0.00 0.00 0.00 0.00 0.00 0.00 0.00
0.14 0.11 0.06 0.05 0.05 0.01 0.00 0.00 0.00 0.00 0.00 0.00 0.00 0.00 0.00 0.00 0.00 0.00 0.00 0.00 0.00 0.00 0.00 0.00 0.00 0.00 0.00 0.00 0.00 0.00 0.00 0.00 0.00 0.00 0.00 0.00 0.00 0.00 0.00 0.00 0.00 0.00 0.00 0.00

GEFSNGP_prec_meanprecacc_030.txt.gz
Total_Precipitation_Accumulation
0.04 0.03 0.04 0.04 0.04 0.04 0.03 0.02 0.03 0.08 0.18 0.29 0.35 0.39 0.49 0.54 0.34 0.18 0.13 0.16 0.22 0.24 0.18 0.11 0.07 0.05 0.04 0.04 0.03 0.02 0.01 0.01 0.02 0.02 0.03 0.03 0.03 0.04 0.04 0.04 0.03 0.02 0.01 0.00
0.03 0.02 0.03 0.06 0.07 0.07 0.07 0.06 0.08 0.18 0.37 0.52 0.59 0.54 0.57 0.56 0.41 0.25 0.19 0.21 0.20 0.18 0.14 0.10 0.07 0.05 0.04 0.05 0.04 0.04 0.05 0.06 0.07 0.08 0.08 0.08 0.07 0.05 0.04 0.02 0.01 0.00 0.00 0.00
0.03 0.02 0.03 0.05 0.04 0.04 0.05 0.09 0.14 0.25 0.38 0.50 0.57 0.59 0.59 0.63 0.55 0.37 0.29 0.27 0.24 0.22 0.20 0.17 0.15 0.13 0.12 0.13 0.13 0.13 0.14 0.15 0.17 0.17 0.15 0.11 0.06 0.03 0.01 0.01 0.01 0.01 0.01 0.00
0.02 0.04 0.07 0.08 0.04 0.05 0.07 0.13 0.20 0.24 0.30 0.40 0.44 0.44 0.41 0.41 0.40 0.35 0.31 0.31 0.31 0.32 0.32 0.28 0.25 0.23 0.23 0.25 0.25 0.27 0.28 0.28 0.25 0.20 0.14 0.07 0.03 0.01 0.01 0.01 0.01 0.01 0.01 0.01
0.04 0.07 0.09 0.13 0.04 0.04 0.09 0.18 0.17 0.22 0.24 0.27 0.27 0.25 0.25 0.26 0.27 0.29 0.33 0.37 0.41 0.42 0.37 0.32 0.30 0.32 0.38 0.41 0.40 0.37 0.32 0.25 0.16 0.10 0.06 0.03 0.02 0.01 0.01 0.01 0.01 0.01 0.01 0.01
0.08 0.13 0.18 0.21 0.06 0.03 0.10 0.31 0.26 0.24 0.23 0.23 0.25 0.26 0.22 0.20 0.22 0.25 0.27 0.28 0.27 0.25 0.24 0.26 0.29 0.31 0.31 0.30 0.25 0.20 0.14 0.08 0.05 0.03 0.02 0.02 0.01 0.01 0.01 0.01 0.01 0.01 0.01 0.01
0.15 0.20 0.24 0.10 0.03 0.10 0.25 0.39 0.43 0.33 0.25 0.20 0.19 0.18 0.18 0.17 0.18 0.19 0.18 0.17 0.15 0.15 0.18 0.20 0.20 0.18 0.16 0.14 0.11 0.07 0.04 0.02 0.02 0.01 0.01 0.01 0.01 0.01 0.01 0.01 0.02 0.02 0.01 0.02
0.22 0.29 0.34 0.11 0.08 0.19 0.28 0.33 0.35 0.26 0.17 0.12 0.07 0.05 0.05 0.05 0.06 0.08 0.09 0.09 0.09 0.10 0.11 0.10 0.09 0.08 0.08 0.07 0.04 0.03 0.02 0.01 0.01 0.01 0.00 0.00 0.01 0.02 0.02 0.02 0.03 0.03 0.03 0.02
0.22 0.30 0.27 0.14 0.14 0.18 0.24 0.32 0.27 0.18 0.10 0.06 0.02 0.01 0.02 0.03 0.04 0.05 0.05 0.06 0.06 0.06 0.06 0.07 0.06 0.05 0.05 0.04 0.04 0.03 0.04 0.03 0.02 0.01 0.01 0.00 0.01 0.02 0.02 0.03 0.03 0.02 0.03 0.03
0.08 0.15 0.14 0.14 0.14 0.15 0.17 0.21 0.18 0.13 0.10 0.04 0.01 0.01 0.02 0.03 0.03 0.04 0.04 0.04 0.04 0.04 0.05 0.06 0.06 0.06 0.07 0.05 0.05 0.06 0.07 0.06 0.04 0.03 0.02 0.01 0.01 0.02 0.03 0.04 0.02 0.02 0.03 0.03
0.05 0.09 0.14 0.19 0.14 0.11 0.11 0.13 0.13 0.13 0.10 0.04 0.01 0.02 0.02 0.02 0.03 0.03 0.04 0.05 0.05 0.06 0.06 0.05 0.04 0.05 0.05 0.06 0.07 0.09 0.09 0.06 0.03 0.02 0.01 0.02 0.03 0.02 0.02 0.03 0.00 0.01 0.02 0.02
0.09 0.11 0.18 0.25 0.17 0.11 0.15 0.15 0.14 0.12 0.08 0.06 0.04 0.03 0.03 0.04 0.04 0.05 0.05 0.04 0.04 0.04 0.03 0.02 0.02 0.02 0.03 0.04 0.06 0.07 0.08 0.04 0.02 0.01 0.01 0.01 0.03 0.05 0.02 0.00 0.00 0.00 0.00 0.01
0.06 0.06 0.10 0.11 0.09 0.09 0.12 0.14 0.15 0.14 0.11 0.09 0.08 0.07 0.07 0.07 0.05 0.04 0.04 0.03 0.03 0.01 0.01 0.01 0.01 0.01 0.01 0.02 0.02 0.02 0.03 0.02 0.01 0.01 0.01 0.02 0.02 0.07 0.09 0.05 0.01 0.00 0.00 0.01
0.02 0.03 0.06 0.08 0.11 0.10 0.12 0.15 0.12 0.11 0.14 0.15 0.13 0.09 0.07 0.05 0.03 0.03 0.02 0.01 0.01 0.00 0.00 0.00 0.00 0.00 0.00 0.00 0.01 0.01 0.01 0.00 0.01 0.01 0.01 0.01 0.01 0.02 0.05 0.08 0.07 0.05 0.02 0.01
0.02 0.04 0.07 0.12 0.16 0.15 0.15 0.17 0.15 0.12 0.12 0.14 0.10 0.06 0.04 0.03 0.03 0.02 0.01 0.01 0.01 0.00 0.00 0.00 0.00 0.00 0.00 0.00 0.00 0.00 0.01 0.01 0.01 0.00 0.00 0.00 0.01 0.01 0.01 0.03 0.06 0.07 0.05 0.03
0.04 0.05 0.08 0.14 0.19 0.19 0.19 0.19 0.16 0.11 0.08 0.06 0.04 0.04 0.03 0.01 0.01 0.01 0.01 0.01 0.00 0.00 0.00 0.00 0.00 0.00 0.00 0.00 0.00 0.00 0.00 0.01 0.00 0.00 0.00 0.00 0.00 0.00 0.00 0.01 0.03 0.04 0.04 0.02
0.06 0.07 0.08 0.10 0.13 0.15 0.13 0.09 0.07 0.05 0.04 0.03 0.02 0.01 0.01 0.01 0.01 0.01 0.01 0.00 0.00 0.00 0.00 0.00 0.00 0.00 0.00 0.00 0.00 0.00 0.00 0.00 0.00 0.00 0.00 0.00 0.00 0.00 0.00 0.00 0.01 0.02 0.02 0.02
0.10 0.09 0.08 0.08 0.08 0.08 0.05 0.03 0.02 0.02 0.02 0.01 0.00 0.00 0.00 0.01 0.01 0.00 0.00 0.00 0.00 0.00 0.00 0.00 0.00 0.00 0.00 0.00 0.00 0.00 0.00 0.00 0.00 0.00 0.00 0.00 0.00 0.00 0.00 0.00 0.01 0.01 0.02 0.03
0.06 0.04 0.04 0.04 0.03 0.02 0.02 0.02 0.01 0.01 0.00 0.00 0.00 0.00 0.00 0.00 0.00 0.00 0.00 0.00 0.00 0.00 0.00 0.00 0.00 0.00 0.00 0.00 0.00 0.00 0.00 0.00 0.00 0.00 0.00 0.00 0.00 0.00 0.00 0.00 0.00 0.01 0.01 0.02
0.01 0.01 0.01 0.01 0.01 0.01 0.01 0.01 0.00 0.00 0.00 0.00 0.00 0.00 0.00 0.00 0.00 0.00 0.00 0.00 0.00 0.00 0.00 0.00 0.00 0.00 0.00 0.00 0.00 0.00 0.00 0.00 0.00 0.00 0.00 0.00 0.00 0.00 0.00 0.00 0.00 0.00 0.01 0.01
0.01 0.00 0.00 0.01 0.01 0.00 0.00 0.00 0.00 0.00 0.00 0.00 0.00 0.00 0.00 0.00 0.00 0.00 0.00 0.00 0.00 0.00 0.00 0.00 0.00 0.00 0.00 0.00 0.00 0.00 0.00 0.00 0.00 0.00 0.00 0.00 0.00 0.00 0.00 0.00 0.00 0.00 0.01 0.01
0.01 0.00 0.00 0.00 0.00 0.00 0.00 0.00 0.00 0.00 0.00 0.00 0.00 0.00 0.00 0.00 0.00 0.00 0.00 0.00 0.00 0.00 0.00 0.00 0.00 0.00 0.00 0.00 0.00 0.00 0.00 0.00 0.00 0.00 0.00 0.00 0.00 0.00 0.00 0.00 0.00 0.00 0.00 0.01
0.02 0.01 0.00 0.00 0.00 0.00 0.00 0.00 0.00 0.00 0.00 0.00 0.00 0.00 0.00 0.00 0.00 0.00 0.00 0.00 0.00 0.00 0.00 0.00 0.00 0.00 0.00 0.00 0.00 0.00 0.00 0.00 0.00 0.00 0.00 0.00 0.00 0.00 0.00 0.00 0.00 0.00 0.00 0.00
0.05 0.02 0.00 0.00 0.00 0.00 0.00 0.00 0.00 0.00 0.00 0.00 0.00 0.00 0.00 0.00 0.00 0.00 0.00 0.00 0.00 0.00 0.00 0.00 0.00 0.00 0.00 0.00 0.00 0.00 0.00 0.00 0.00 0.00 0.00 0.00 0.00 0.00 0.00 0.00 0.00 0.00 0.00 0.00
0.04 0.02 0.01 0.00 0.00 0.00 0.00 0.00 0.00 0.00 0.00 0.00 0.00 0.00 0.00 0.00 0.00 0.00 0.00 0.00 0.00 0.00 0.00 0.00 0.00 0.00 0.00 0.00 0.00 0.00 0.00 0.00 0.00 0.00 0.00 0.00 0.00 0.00 0.00 0.00 0.00 0.00 0.00 0.00
0.08 0.06 0.02 0.01 0.01 0.00 0.00 0.00 0.00 0.00 0.00 0.00 0.00 0.00 0.00 0.00 0.00 0.00 0.00 0.00 0.00 0.00 0.00 0.00 0.00 0.00 0.00 0.00 0.00 0.00 0.00 0.00 0.00 0.00 0.00 0.00 0.00 0.00 0.00 0.00 0.00 0.00 0.00 0.00
0.15 0.12 0.06 0.05 0.05 0.01 0.00 0.00 0.00 0.00 0.00 0.00 0.00 0.00 0.00 0.00 0.00 0.00 0.00 0.00 0.00 0.00 0.00 0.00 0.00 0.00 0.00 0.00 0.00 0.00 0.00 0.00 0.00 0.00 0.00 0.00 0.00 0.00 0.00 0.00 0.00 0.00 0.00 0.00

GEFSNGP_prec_meanprecacc_036.txt.gz
Total_Precipitation_Accumulation
0.07 0.06 0.06 0.05 0.05 0.04 0.04 0.04 0.08 0.17 0.31 0.48 0.65 0.75 0.81 0.81 0.61 0.41 0.30 0.29 0.33 0.33 0.26 0.20 0.16 0.14 0.13 0.13 0.10 0.08 0.07 0.07 0.06 0.06 0.06 0.06 0.06 0.06 0.06 0.05 0.04 0.02 0.01 0.01
0.04 0.04 0.05 0.10 0.11 0.11 0.14 0.16 0.19 0.33 0.56 0.83 0.95 0.93 0.94 0.90 0.72 0.53 0.44 0.42 0.37 0.33 0.29 0.26 0.24 0.22 0.20 0.19 0.17 0.16 0.14 0.13 0.13 0.12 0.12 0.11 0.09 0.07 0.05 0.03 0.02 0.01 0.01 0.01
0.04 0.05 0.07 0.16 0.17 0.15 0.20 0.25 0.29 0.42 0.58 0.78 0.87 0.92 0.97 1.03 0.92 0.69 0.57 0.53 0.47 0.43 0.40 0.39 0.38 0.35 0.34 0.33 0.30 0.27 0.26 0.25 0.24 0.22 0.19 0.14 0.07 0.04 0.02 0.02 0.01 0.01 0.01 0.01
0.03 0.05 0.14 0.17 0.12 0.16 0.23 0.27 0.32 0.35 0.44 0.55 0.59 0.62 0.63 0.66 0.67 0.62 0.56 0.54 0.54 0.56 0.56 0.53 0.49 0.45 0.43 0.41 0.39 0.37 0.36 0.34 0.30 0.24 0.17 0.09 0.05 0.03 0.02 0.02 0.02 0.01 0.01 0.01
0.05 0.08 0.15 0.20 0.10 0.09 0.18 0.31 0.31 0.31 0.29 0.32 0.31 0.31 0.34 0.38 0.41 0.46 0.55 0.60 0.62 0.62 0.59 0.53 0.47 0.45 0.46 0.46 0.44 0.39 0.34 0.27 0.18 0.12 0.07 0.04 0.03 0.02 0.02 0.02 0.01 0.01 0.01 0.01
0.10 0.16 0.24 0.27 0.11 0.06 0.14 0.40 0.38 0.37 0.33 0.32 0.33 0.34 0.30 0.30 0.32 0.36 0.39 0.40 0.39 0.36 0.34 0.35 0.36 0.36 0.34 0.32 0.27 0.21 0.14 0.08 0.05 0.04 0.03 0.02 0.02 0.02 0.02 0.01 0.01 0.01 0.01 0.01
0.17 0.24 0.30 0.14 0.05 0.11 0.29 0.45 0.51 0.43 0.33 0.28 0.27 0.25 0.22 0.21 0.22 0.23 0.23 0.22 0.20 0.20 0.23 0.25 0.24 0.21 0.19 0.16 0.12 0.08 0.04 0.03 0.02 0.01 0.01 0.01 0.01 0.01 0.01 0.01 0.02 0.02 0.02 0.02
0.23 0.31 0.37 0.14 0.09 0.20 0.30 0.36 0.38 0.29 0.20 0.15 0.09 0.06 0.06 0.06 0.08 0.09 0.10 0.11 0.10 0.11 0.12 0.12 0.10 0.08 0.08 0.07 0.04 0.03 0.02 0.02 0.01 0.01 0.01 0.01 0.01 0.02 0.02 0.03 0.03 0.03 0.03 0.03
0.23 0.32 0.30 0.16 0.15 0.20 0.26 0.35 0.29 0.19 0.11 0.06 0.03 0.02 0.02 0.03 0.05 0.06 0.06 0.06 0.06 0.06 0.06 0.07 0.06 0.06 0.06 0.05 0.04 0.04 0.04 0.04 0.02 0.02 0.01 0.01 0.01 0.02 0.03 0.04 0.03 0.03 0.03 0.03
0.09 0.18 0.18 0.16 0.16 0.16 0.17 0.22 0.18 0.14 0.10 0.05 0.01 0.01 0.02 0.03 0.04 0.04 0.04 0.05 0.05 0.05 0.06 0.07 0.06 0.07 0.08 0.07 0.07 0.09 0.10 0.07 0.04 0.04 0.03 0.02 0.02 0.02 0.03 0.04 0.02 0.02 0.03 0.03
0.07 0.14 0.19 0.23 0.16 0.12 0.12 0.13 0.13 0.13 0.11 0.05 0.01 0.02 0.03 0.03 0.03 0.03 0.04 0.05 0.05 0.06 0.07 0.06 0.05 0.06 0.07 0.08 0.10 0.13 0.12 0.08 0.04 0.03 0.03 0.03 0.04 0.03 0.02 0.03 0.01 0.01 0.02 0.02
0.10 0.13 0.20 0.27 0.19 0.12 0.16 0.17 0.16 0.13 0.10 0.07 0.04 0.03 0.03 0.04 0.05 0.05 0.05 0.05 0.05 0.05 0.04 0.03 0.03 0.03 0.04 0.06 0.07 0.09 0.09 0.06 0.03 0.02 0.03 0.03 0.05 0.07 0.03 0.00 0.00 0.00 0.00 0.01
0.06 0.06 0.10 0.11 0.10 0.10 0.13 0.17 0.18 0.16 0.13 0.10 0.08 0.08 0.08 0.07 0.06 0.05 0.04 0.04 0.03 0.02 0.01 0.01 0.01 0.01 0.02 0.03 0.02 0.03 0.03 0.02 0.01 0.02 0.02 0.03 0.05 0.09 0.11 0.05 0.01 0.00 0.00 0.01
0.02 0.03 0.06 0.09 0.12 0.11 0.14 0.18 0.16 0.14 0.15 0.16 0.13 0.10 0.08 0.05 0.04 0.03 0.03 0.01 0.01 0.00 0.00 0.00 0.00 0.00 0.00 0.01 0.01 0.01 0.01 0.01 0.01 0.01 0.02 0.03 0.03 0.04 0.07 0.09 0.08 0.05 0.02 0.01
0.02 0.04 0.08 0.13 0.17 0.16 0.17 0.20 0.17 0.13 0.13 0.14 0.10 0.06 0.04 0.04 0.03 0.02 0.01 0.01 0.01 0.00 0.00 0.00 0.00 0.00 0.00 0.00 0.00 0.00 0.01 0.01 0.01 0.01 0.01 0.02 0.02 0.02 0.02 0.03 0.06 0.08 0.06 0.03
0.04 0.05 0.08 0.14 0.20 0.21 0.21 0.22 0.17 0.12 0.09 0.07 0.05 0.04 0.03 0.02 0.01 0.01 0.01 0.01 0.00 0.00 0.00 0.00 0.00 0.00 0.00 0.00 0.00 0.00 0.01 0.01 0.01 0.00 0.00 0.01 0.01 0.00 0.01 0.02 0.03 0.05 0.05 0.03
0.06 0.07 0.08 0.11 0.14 0.16 0.14 0.10 0.07 0.05 0.04 0.03 0.02 0.02 0.01 0.01 0.01 0.01 0.01 0.00 0.00 0.00 0.00 0.00 0.00 0.00 0.00 0.00 0.00 0.00 0.00 0.00 0.00 0.00 0.00 0.00 0.00 0.00 0.00 0.01 0.02 0.03 0.03 0.03
0.10 0.09 0.08 0.08 0.09 0.08 0.05 0.04 0.03 0.02 0.02 0.01 0.01 0.00 0.00 0.01 0.01 0.00 0.00 0.00 0.00 0.00 0.00 0.00 0.00 0.00 0.00 0.00 0.00 0.00 0.00 0.00 0.00 0.00 0.00 0.00 0.00 0.00 0.00 0.00 0.01 0.02 0.02 0.03
0.06 0.04 0.04 0.04 0.03 0.02 0.02 0.02 0.02 0.01 0.00 0.00 0.00 0.00 0.00 0.00 0.00 0.00 0.00 0.00 0.00 0.00 0.00 0.00 0.00 0.00 0.00 0.00 0.00 0.00 0.00 0.00 0.00 0.00 0.00 0.00 0.00 0.00 0.00 0.00 0.00 0.01 0.01 0.02
0.01 0.01 0.01 0.02 0.01 0.01 0.01 0.01 0.00 0.00 0.00 0.00 0.00 0.00 0.00 0.00 0.00 0.00 0.00 0.00 0.00 0.00 0.00 0.00 0.00 0.00 0.00 0.00 0.00 0.00 0.00 0.00 0.00 0.00 0.00 0.00 0.00 0.00 0.00 0.00 0.00 0.00 0.01 0.01
0.01 0.01 0.01 0.01 0.01 0.00 0.00 0.00 0.00 0.00 0.00 0.00 0.00 0.00 0.00 0.00 0.00 0.00 0.00 0.00 0.00 0.00 0.00 0.00 0.00 0.00 0.00 0.00 0.00 0.00 0.00 0.00 0.00 0.00 0.00 0.00 0.00 0.00 0.00 0.00 0.00 0.00 0.01 0.01
0.01 0.00 0.00 0.00 0.00 0.00 0.00 0.00 0.00 0.00 0.00 0.00 0.00 0.00 0.00 0.00 0.00 0.00 0.00 0.00 0.00 0.00 0.00 0.00 0.00 0.00 0.00 0.00 0.00 0.00 0.00 0.00 0.00 0.00 0.00 0.00 0.00 0.00 0.00 0.00 0.00 0.00 0.01 0.01
0.02 0.01 0.00 0.00 0.00 0.00 0.00 0.00 0.00 0.00 0.00 0.00 0.00 0.00 0.00 0.00 0.00 0.00 0.00 0.00 0.00 0.00 0.00 0.00 0.00 0.00 0.00 0.00 0.00 0.00 0.00 0.00 0.00 0.00 0.00 0.00 0.00 0.00 0.00 0.00 0.00 0.00 0.00 0.01
0.05 0.02 0.00 0.00 0.00 0.00 0.00 0.00 0.00 0.00 0.00 0.00 0.00 0.00 0.00 0.00 0.00 0.00 0.00 0.00 0.00 0.00 0.00 0.00 0.00 0.00 0.00 0.00 0.00 0.00 0.00 0.00 0.00 0.00 0.00 0.00 0.00 0.00 0.00 0.00 0.00 0.00 0.00 0.00
0.04 0.02 0.01 0.00 0.00 0.00 0.00 0.00 0.00 0.00 0.00 0.00 0.00 0.00 0.00 0.00 0.00 0.00 0.00 0.00 0.00 0.00 0.00 0.00 0.00 0.00 0.00 0.00 0.00 0.00 0.00 0.00 0.00 0.00 0.00 0.00 0.00 0.00 0.00 0.00 0.00 0.00 0.00 0.00
0.08 0.06 0.02 0.01 0.01 0.00 0.00 0.00 0.00 0.00 0.00 0.00 0.00 0.00 0.00 0.00 0.00 0.00 0.00 0.00 0.00 0.00 0.00 0.00 0.00 0.00 0.00 0.00 0.00 0.00 0.00 0.00 0.00 0.00 0.00 0.00 0.00 0.00 0.00 0.00 0.00 0.00 0.00 0.00
0.15 0.12 0.06 0.05 0.05 0.01 0.00 0.00 0.00 0.00 0.00 0.00 0.00 0.00 0.00 0.00 0.00 0.00 0.00 0.00 0.00 0.00 0.00 0.00 0.00 0.00 0.00 0.00 0.00 0.00 0.00 0.00 0.00 0.00 0.00 0.00 0.00 0.00 0.00 0.00 0.00 0.00 0.00 0.00

GEFSNGP_prec_meanprecacc_042.txt.gz
Total_Precipitation_Accumulation
0.08 0.07 0.06 0.06 0.05 0.05 0.04 0.04 0.10 0.21 0.35 0.53 0.72 0.82 0.90 0.90 0.70 0.52 0.43 0.43 0.49 0.51 0.44 0.37 0.32 0.28 0.24 0.22 0.19 0.16 0.15 0.14 0.13 0.13 0.13 0.14 0.14 0.15 0.16 0.15 0.12 0.10 0.07 0.05
0.05 0.06 0.06 0.11 0.12 0.12 0.16 0.19 0.23 0.38 0.59 0.88 1.01 0.99 1.02 1.01 0.85 0.67 0.60 0.60 0.58 0.55 0.52 0.48 0.44 0.40 0.35 0.32 0.29 0.26 0.25 0.23 0.23 0.22 0.22 0.20 0.18 0.16 0.13 0.10 0.07 0.05 0.04 0.03
0.04 0.06 0.08 0.17 0.19 0.17 0.22 0.28 0.35 0.47 0.62 0.83 0.94 0.99 1.05 1.13 1.05 0.84 0.73 0.70 0.68 0.65 0.62 0.59 0.56 0.53 0.49 0.46 0.41 0.37 0.35 0.33 0.32 0.30 0.26 0.19 0.12 0.08 0.06 0.05 0.04 0.04 0.03 0.02
0.03 0.06 0.15 0.18 0.13 0.17 0.25 0.29 0.35 0.39 0.48 0.60 0.64 0.68 0.72 0.76 0.77 0.74 0.69 0.68 0.69 0.71 0.72 0.68 0.63 0.58 0.54 0.50 0.47 0.44 0.43 0.40 0.35 0.28 0.21 0.13 0.07 0.06 0.05 0.05 0.04 0.02 0.01 0.01
0.05 0.08 0.16 0.20 0.11 0.10 0.22 0.38 0.38 0.38 0.34 0.37 0.37 0.36 0.43 0.50 0.51 0.56 0.66 0.72 0.75 0.75 0.70 0.64 0.56 0.52 0.52 0.52 0.48 0.43 0.38 0.30 0.21 0.14 0.10 0.06 0.04 0.04 0.03 0.03 0.02 0.01 0.01 0.01
0.10 0.16 0.24 0.28 0.11 0.08 0.17 0.49 0.47 0.46 0.40 0.38 0.40 0.40 0.38 0.38 0.40 0.44 0.48 0.50 0.49 0.46 0.42 0.41 0.40 0.39 0.38 0.35 0.30 0.24 0.17 0.11 0.07 0.05 0.04 0.03 0.03 0.02 0.02 0.01 0.01 0.01 0.01 0.01
0.17 0.24 0.30 0.14 0.06 0.13 0.31 0.48 0.55 0.49 0.38 0.34 0.34 0.30 0.27 0.26 0.28 0.28 0.28 0.28 0.25 0.24 0.26 0.27 0.26 0.23 0.20 0.17 0.13 0.09 0.05 0.03 0.03 0.02 0.02 0.01 0.01 0.01 0.01 0.01 0.02 0.02 0.02 0.02
0.23 0.31 0.37 0.14 0.09 0.21 0.30 0.36 0.40 0.32 0.24 0.19 0.13 0.10 0.09 0.09 0.11 0.12 0.13 0.13 0.12 0.13 0.13 0.12 0.11 0.09 0.08 0.07 0.05 0.03 0.02 0.02 0.02 0.01 0.01 0.01 0.01 0.02 0.02 0.03 0.03 0.03 0.03 0.03
0.23 0.32 0.30 0.16 0.15 0.20 0.27 0.35 0.30 0.20 0.11 0.07 0.03 0.02 0.02 0.04 0.05 0.06 0.06 0.07 0.07 0.06 0.06 0.07 0.06 0.06 0.06 0.05 0.04 0.04 0.04 0.04 0.03 0.02 0.01 0.01 0.01 0.02 0.03 0.04 0.03 0.03 0.03 0.03
0.09 0.18 0.18 0.16 0.16 0.16 0.17 0.22 0.18 0.14 0.10 0.05 0.01 0.01 0.02 0.04 0.05 0.04 0.04 0.05 0.05 0.05 0.06 0.07 0.07 0.08 0.08 0.07 0.07 0.10 0.10 0.07 0.04 0.04 0.03 0.03 0.03 0.03 0.03 0.05 0.03 0.02 0.03 0.03
0.07 0.14 0.19 0.23 0.17 0.12 0.12 0.13 0.13 0.13 0.11 0.05 0.01 0.02 0.03 0.03 0.03 0.03 0.04 0.05 0.05 0.06 0.07 0.06 0.05 0.06 0.07 0.08 0.10 0.13 0.12 0.08 0.04 0.03 0.03 0.04 0.05 0.04 0.03 0.03 0.01 0.01 0.02 0.02
0.10 0.13 0.20 0.27 0.19 0.12 0.16 0.17 0.16 0.13 0.10 0.07 0.04 0.03 0.04 0.04 0.05 0.05 0.05 0.05 0.05 0.05 0.04 0.03 0.03 0.03 0.04 0.06 0.07 0.09 0.09 0.06 0.03 0.02 0.03 0.03 0.06 0.07 0.03 0.01 0.00 0.00 0.00 0.01
0.06 0.06 0.10 0.11 0.10 0.10 0.13 0.17 0.18 0.17 0.13 0.10 0.08 0.08 0.08 0.07 0.06 0.05 0.04 0.04 0.03 0.02 0.01 0.01 0.01 0.01 0.02 0.03 0.02 0.03 0.03 0.02 0.01 0.02 0.02 0.04 0.05 0.09 0.11 0.05 0.01 0.00 0.00 0.01
0.02 0.03 0.06 0.09 0.12 0.11 0.14 0.18 0.17 0.14 0.15 0.17 0.13 0.10 0.08 0.05 0.04 0.03 0.03 0.01 0.01 0.00 0.00 0.00 0.00 0.00 0.00 0.01 0.01 0.01 0.01 0.01 0.01 0.02 0.02 0.03 0.03 0.04 0.07 0.09 0.08 0.05 0.03 0.01
0.02 0.04 0.08 0.13 0.17 0.16 0.17 0.20 0.18 0.14 0.13 0.14 0.10 0.06 0.04 0.04 0.03 0.02 0.01 0.01 0.01 0.00 0.00 0.00 0.00 0.00 0.00 0.00 0.00 0.00 0.01 0.01 0.01 0.01 0.01 0.02 0.02 0.02 0.02 0.04 0.07 0.08 0.07 0.03
0.04 0.05 0.08 0.14 0.20 0.21 0.21 0.22 0.17 0.13 0.09 0.07 0.05 0.04 0.03 0.02 0.01 0.01 0.01 0.01 0.00 0.00 0.00 0.00 0.00 0.00 0.00 0.00 0.00 0.00 0.01 0.01 0.01 0.00 0.00 0.01 0.01 0.00 0.01 0.02 0.04 0.05 0.05 0.03
0.06 0.07 0.08 0.11 0.14 0.17 0.15 0.11 0.07 0.06 0.04 0.03 0.02 0.02 0.01 0.01 0.01 0.01 0.01 0.00 0.00 0.00 0.00 0.00 0.00 0.00 0.00 0.00 0.00 0.00 0.00 0.00 0.00 0.00 0.00 0.00 0.00 0.00 0.00 0.01 0.02 0.03 0.03 0.03
0.10 0.09 0.08 0.08 0.09 0.08 0.06 0.04 0.03 0.02 0.02 0.01 0.01 0.00 0.00 0.01 0.01 0.00 0.00 0.00 0.00 0.00 0.00 0.00 0.00 0.00 0.00 0.00 0.00 0.00 0.00 0.00 0.00 0.00 0.00 0.00 0.00 0.00 0.00 0.01 0.01 0.02 0.02 0.04
0.06 0.04 0.04 0.04 0.03 0.03 0.02 0.02 0.02 0.01 0.00 0.00 0.00 0.00 0.00 0.00 0.00 0.00 0.00 0.00 0.00 0.00 0.00 0.00 0.00 0.00 0.00 0.00 0.00 0.00 0.00 0.00 0.00 0.00 0.00 0.00 0.00 0.00 0.00 0.00 0.01 0.01 0.01 0.03
0.01 0.01 0.01 0.02 0.01 0.01 0.01 0.01 0.00 0.00 0.00 0.00 0.00 0.00 0.00 0.00 0.00 0.00 0.00 0.00 0.00 0.00 0.00 0.00 0.00 0.00 0.00 0.00 0.00 0.00 0.00 0.00 0.00 0.00 0.00 0.00 0.00 0.00 0.00 0.00 0.00 0.01 0.01 0.01
0.01 0.01 0.01 0.01 0.01 0.00 0.00 0.00 0.00 0.00 0.00 0.00 0.00 0.00 0.00 0.00 0.00 0.00 0.00 0.00 0.00 0.00 0.00 0.00 0.00 0.00 0.00 0.00 0.00 0.00 0.00 0.00 0.00 0.00 0.00 0.00 0.00 0.00 0.00 0.00 0.00 0.00 0.01 0.01
0.01 0.00 0.00 0.00 0.00 0.00 0.00 0.00 0.00 0.00 0.00 0.00 0.00 0.00 0.00 0.00 0.00 0.00 0.00 0.00 0.00 0.00 0.00 0.00 0.00 0.00 0.00 0.00 0.00 0.00 0.00 0.00 0.00 0.00 0.00 0.00 0.00 0.00 0.00 0.00 0.00 0.00 0.01 0.01
0.02 0.01 0.00 0.00 0.00 0.00 0.00 0.00 0.00 0.00 0.00 0.00 0.00 0.00 0.00 0.00 0.00 0.00 0.00 0.00 0.00 0.00 0.00 0.00 0.00 0.00 0.00 0.00 0.00 0.00 0.00 0.00 0.00 0.00 0.00 0.00 0.00 0.00 0.00 0.00 0.00 0.00 0.00 0.01
0.05 0.02 0.00 0.00 0.00 0.00 0.00 0.00 0.00 0.00 0.00 0.00 0.00 0.00 0.00 0.00 0.00 0.00 0.00 0.00 0.00 0.00 0.00 0.00 0.00 0.00 0.00 0.00 0.00 0.00 0.00 0.00 0.00 0.00 0.00 0.00 0.00 0.00 0.00 0.00 0.00 0.00 0.00 0.00
0.04 0.02 0.01 0.00 0.00 0.00 0.00 0.00 0.00 0.00 0.00 0.00 0.00 0.00 0.00 0.00 0.00 0.00 0.00 0.00 0.00 0.00 0.00 0.00 0.00 0.00 0.00 0.00 0.00 0.00 0.00 0.00 0.00 0.00 0.00 0.00 0.00 0.00 0.00 0.00 0.00 0.00 0.00 0.00
0.08 0.06 0.02 0.01 0.01 0.00 0.00 0.00 0.00 0.00 0.00 0.00 0.00 0.00 0.00 0.00 0.00 0.00 0.00 0.00 0.00 0.00 0.00 0.00 0.00 0.00 0.00 0.00 0.00 0.00 0.00 0.00 0.00 0.00 0.00 0.00 0.00 0.00 0.00 0.00 0.00 0.00 0.00 0.00
0.15 0.12 0.06 0.05 0.05 0.01 0.00 0.00 0.00 0.00 0.00 0.00 0.00 0.00 0.00 0.00 0.00 0.00 0.00 0.00 0.00 0.00 0.00 0.00 0.00 0.00 0.00 0.00 0.00 0.00 0.00 0.00 0.00 0.00 0.00 0.00 0.00 0.00 0.00 0.00 0.00 0.00 0.00 0.00

GEFSNGP_prec_meanprecacc_048.txt.gz
Total_Precipitation_Accumulation
0.10 0.08 0.08 0.07 0.07 0.05 0.05 0.05 0.12 0.24 0.38 0.58 0.78 0.87 0.95 0.93 0.72 0.53 0.45 0.45 0.50 0.52 0.46 0.40 0.36 0.33 0.29 0.29 0.26 0.24 0.24 0.25 0.24 0.24 0.24 0.25 0.26 0.27 0.27 0.25 0.22 0.19 0.15 0.12
0.08 0.08 0.08 0.12 0.13 0.14 0.17 0.19 0.25 0.40 0.63 0.94 1.09 1.06 1.08 1.06 0.89 0.71 0.63 0.63 0.60 0.58 0.55 0.52 0.49 0.45 0.41 0.38 0.36 0.35 0.36 0.37 0.37 0.37 0.36 0.34 0.30 0.26 0.21 0.17 0.13 0.09 0.06 0.05
0.07 0.08 0.11 0.20 0.20 0.18 0.23 0.30 0.39 0.54 0.68 0.88 1.00 1.07 1.13 1.20 1.11 0.90 0.78 0.75 0.72 0.69 0.66 0.63 0.62 0.58 0.55 0.52 0.49 0.47 0.47 0.48 0.47 0.43 0.38 0.30 0.20 0.14 0.10 0.08 0.06 0.05 0.04 0.03
0.05 0.08 0.18 0.21 0.13 0.18 0.27 0.31 0.38 0.43 0.53 0.66 0.72 0.77 0.81 0.85 0.86 0.82 0.77 0.75 0.74 0.76 0.77 0.73 0.68 0.63 0.60 0.57 0.53 0.50 0.49 0.47 0.41 0.34 0.26 0.17 0.10 0.07 0.06 0.05 0.04 0.03 0.02 0.02
0.06 0.09 0.17 0.22 0.12 0.12 0.26 0.42 0.41 0.41 0.40 0.43 0.43 0.43 0.52 0.60 0.62 0.67 0.76 0.80 0.81 0.81 0.75 0.69 0.62 0.58 0.57 0.57 0.53 0.47 0.41 0.33 0.23 0.16 0.11 0.07 0.05 0.04 0.04 0.03 0.02 0.01 0.01 0.01
0.11 0.17 0.25 0.29 0.12 0.08 0.21 0.54 0.51 0.53 0.51 0.51 0.53 0.51 0.50 0.50 0.50 0.54 0.57 0.59 0.56 0.52 0.48 0.46 0.45 0.44 0.41 0.38 0.32 0.26 0.18 0.12 0.08 0.06 0.04 0.04 0.03 0.03 0.02 0.02 0.02 0.01 0.01 0.01
0.17 0.25 0.31 0.14 0.06 0.14 0.36 0.54 0.59 0.53 0.45 0.45 0.49 0.44 0.37 0.36 0.37 0.37 0.38 0.36 0.32 0.29 0.30 0.31 0.29 0.26 0.22 0.18 0.14 0.09 0.06 0.04 0.03 0.03 0.02 0.02 0.02 0.02 0.02 0.02 0.03 0.03 0.03 0.03
0.23 0.32 0.37 0.14 0.09 0.22 0.32 0.38 0.42 0.35 0.29 0.27 0.23 0.20 0.17 0.16 0.17 0.19 0.20 0.18 0.16 0.16 0.16 0.14 0.12 0.10 0.09 0.08 0.05 0.03 0.02 0.02 0.02 0.01 0.01 0.01 0.02 0.02 0.02 0.03 0.04 0.05 0.04 0.04
0.23 0.33 0.30 0.16 0.15 0.20 0.27 0.36 0.30 0.20 0.13 0.10 0.08 0.07 0.07 0.08 0.09 0.10 0.10 0.09 0.09 0.08 0.07 0.08 0.07 0.07 0.06 0.05 0.04 0.04 0.05 0.04 0.03 0.02 0.01 0.01 0.02 0.03 0.04 0.05 0.04 0.04 0.04 0.04
0.09 0.18 0.18 0.17 0.16 0.16 0.17 0.22 0.19 0.14 0.11 0.05 0.02 0.03 0.04 0.06 0.06 0.06 0.06 0.06 0.06 0.06 0.07 0.08 0.07 0.08 0.09 0.08 0.08 0.10 0.11 0.08 0.05 0.04 0.04 0.04 0.04 0.04 0.05 0.06 0.04 0.04 0.05 0.05
0.07 0.14 0.19 0.24 0.17 0.12 0.12 0.13 0.13 0.13 0.11 0.05 0.02 0.02 0.03 0.04 0.04 0.04 0.05 0.06 0.06 0.07 0.07 0.06 0.06 0.07 0.08 0.09 0.11 0.14 0.13 0.08 0.05 0.04 0.04 0.05 0.06 0.05 0.03 0.04 0.01 0.02 0.03 0.03
0.10 0.13 0.21 0.27 0.19 0.12 0.16 0.17 0.16 0.14 0.10 0.08 0.04 0.04 0.04 0.05 0.05 0.06 0.06 0.05 0.05 0.05 0.04 0.03 0.03 0.03 0.04 0.07 0.08 0.09 0.10 0.06 0.03 0.03 0.03 0.04 0.07 0.08 0.03 0.01 0.00 0.00 0.00 0.01
0.06 0.06 0.10 0.11 0.10 0.10 0.13 0.17 0.18 0.17 0.13 0.10 0.08 0.08 0.08 0.08 0.06 0.05 0.05 0.04 0.03 0.02 0.01 0.01 0.01 0.02 0.02 0.03 0.03 0.03 0.04 0.02 0.02 0.02 0.03 0.04 0.06 0.10 0.12 0.06 0.01 0.01 0.01 0.01
0.02 0.03 0.06 0.09 0.12 0.11 0.14 0.18 0.17 0.14 0.16 0.17 0.14 0.10 0.08 0.06 0.04 0.04 0.03 0.02 0.01 0.00 0.00 0.00 0.01 0.01 0.00 0.01 0.01 0.01 0.02 0.01 0.01 0.02 0.02 0.03 0.04 0.05 0.08 0.11 0.10 0.07 0.03 0.02
0.02 0.04 0.08 0.13 0.17 0.16 0.17 0.20 0.18 0.14 0.14 0.15 0.10 0.06 0.05 0.04 0.03 0.02 0.01 0.01 0.01 0.00 0.00 0.00 0.00 0.00 0.00 0.00 0.00 0.00 0.01 0.02 0.01 0.01 0.01 0.02 0.02 0.02 0.02 0.04 0.08 0.10 0.09 0.05
0.04 0.05 0.08 0.14 0.20 0.21 0.22 0.22 0.18 0.13 0.09 0.07 0.05 0.04 0.03 0.02 0.01 0.01 0.01 0.01 0.00 0.00 0.00 0.00 0.00 0.00 0.00 0.00 0.00 0.01 0.01 0.01 0.01 0.00 0.00 0.01 0.01 0.01 0.01 0.02 0.05 0.07 0.06 0.04
0.06 0.07 0.08 0.11 0.14 0.17 0.15 0.11 0.07 0.06 0.04 0.03 0.02 0.02 0.01 0.01 0.01 0.01 0.01 0.00 0.00 0.00 0.00 0.00 0.00 0.00 0.00 0.00 0.00 0.00 0.00 0.00 0.00 0.00 0.00 0.00 0.00 0.00 0.01 0.01 0.02 0.03 0.03 0.04
0.10 0.09 0.08 0.08 0.09 0.08 0.06 0.04 0.03 0.02 0.02 0.01 0.01 0.00 0.00 0.01 0.01 0.00 0.00 0.00 0.00 0.00 0.00 0.00 0.00 0.00 0.00 0.00 0.00 0.00 0.00 0.00 0.00 0.00 0.00 0.00 0.00 0.00 0.00 0.01 0.02 0.02 0.03 0.05
0.06 0.04 0.04 0.04 0.03 0.03 0.02 0.02 0.02 0.01 0.00 0.00 0.00 0.00 0.00 0.00 0.00 0.00 0.00 0.00 0.00 0.00 0.00 0.00 0.00 0.00 0.00 0.00 0.00 0.00 0.00 0.00 0.00 0.00 0.00 0.00 0.00 0.00 0.00 0.01 0.01 0.01 0.02 0.04
0.01 0.01 0.01 0.02 0.01 0.01 0.01 0.01 0.00 0.00 0.00 0.00 0.00 0.00 0.00 0.00 0.00 0.00 0.00 0.00 0.00 0.00 0.00 0.00 0.00 0.00 0.00 0.00 0.00 0.00 0.00 0.00 0.00 0.00 0.00 0.00 0.00 0.00 0.00 0.00 0.00 0.01 0.01 0.02
0.01 0.01 0.01 0.01 0.01 0.00 0.00 0.00 0.00 0.00 0.00 0.00 0.00 0.00 0.00 0.00 0.00 0.00 0.00 0.00 0.00 0.00 0.00 0.00 0.00 0.00 0.00 0.00 0.00 0.00 0.00 0.00 0.00 0.00 0.00 0.00 0.00 0.00 0.00 0.00 0.00 0.01 0.01 0.02
0.01 0.00 0.00 0.00 0.00 0.00 0.00 0.00 0.00 0.00 0.00 0.00 0.00 0.00 0.00 0.00 0.00 0.00 0.00 0.00 0.00 0.00 0.00 0.00 0.00 0.00 0.00 0.00 0.00 0.00 0.00 0.00 0.00 0.00 0.00 0.00 0.00 0.00 0.00 0.00 0.00 0.01 0.01 0.02
0.02 0.01 0.00 0.00 0.00 0.00 0.00 0.00 0.00 0.00 0.00 0.00 0.00 0.00 0.00 0.00 0.00 0.00 0.00 0.00 0.00 0.00 0.00 0.00 0.00 0.00 0.00 0.00 0.00 0.00 0.00 0.00 0.00 0.00 0.00 0.00 0.00 0.00 0.00 0.00 0.00 0.00 0.01 0.01
0.05 0.02 0.00 0.00 0.00 0.00 0.00 0.00 0.00 0.00 0.00 0.00 0.00 0.00 0.00 0.00 0.00 0.00 0.00 0.00 0.00 0.00 0.00 0.00 0.00 0.00 0.00 0.00 0.00 0.00 0.00 0.00 0.00 0.00 0.00 0.00 0.00 0.00 0.00 0.00 0.00 0.00 0.00 0.00
0.04 0.02 0.01 0.00 0.00 0.00 0.00 0.00 0.00 0.00 0.00 0.00 0.00 0.00 0.00 0.00 0.00 0.00 0.00 0.00 0.00 0.00 0.00 0.00 0.00 0.00 0.00 0.00 0.00 0.00 0.00 0.00 0.00 0.00 0.00 0.00 0.00 0.00 0.00 0.00 0.00 0.00 0.00 0.00
0.08 0.06 0.02 0.01 0.01 0.00 0.00 0.00 0.00 0.00 0.00 0.00 0.00 0.00 0.00 0.00 0.00 0.00 0.00 0.00 0.00 0.00 0.00 0.00 0.00 0.00 0.00 0.00 0.00 0.00 0.00 0.00 0.00 0.00 0.00 0.00 0.00 0.00 0.00 0.00 0.00 0.00 0.00 0.00
0.15 0.12 0.06 0.05 0.05 0.01 0.00 0.00 0.00 0.00 0.00 0.00 0.00 0.00 0.00 0.00 0.00 0.00 0.00 0.00 0.00 0.00 0.00 0.00 0.00 0.00 0.00 0.00 0.00 0.00 0.00 0.00 0.00 0.00 0.00 0.00 0.00 0.00 0.00 0.00 0.00 0.00 0.00 0.00

GEFSNGP_prec_meanprecacc_054.txt.gz
Total_Precipitation_Accumulation
0.18 0.16 0.13 0.10 0.08 0.06 0.05 0.06 0.18 0.41 0.60 0.83 0.94 0.95 1.00 0.97 0.75 0.56 0.47 0.46 0.52 0.54 0.47 0.41 0.37 0.34 0.31 0.30 0.27 0.25 0.25 0.26 0.26 0.26 0.26 0.27 0.29 0.30 0.30 0.29 0.26 0.23 0.20 0.16
0.11 0.10 0.11 0.14 0.14 0.15 0.18 0.21 0.32 0.54 0.81 1.17 1.27 1.16 1.15 1.12 0.94 0.75 0.66 0.65 0.62 0.59 0.56 0.54 0.50 0.46 0.42 0.40 0.37 0.36 0.37 0.39 0.39 0.38 0.38 0.36 0.33 0.29 0.25 0.21 0.16 0.12 0.09 0.06
0.13 0.10 0.13 0.26 0.22 0.20 0.25 0.33 0.45 0.65 0.80 1.01 1.11 1.16 1.22 1.29 1.20 0.98 0.85 0.80 0.76 0.72 0.69 0.66 0.64 0.60 0.57 0.54 0.50 0.48 0.49 0.49 0.48 0.45 0.39 0.31 0.22 0.16 0.13 0.10 0.08 0.06 0.04 0.03
0.08 0.13 0.28 0.29 0.15 0.19 0.29 0.34 0.42 0.49 0.61 0.76 0.80 0.87 0.93 0.97 0.96 0.91 0.84 0.82 0.80 0.81 0.80 0.76 0.70 0.65 0.62 0.58 0.55 0.52 0.51 0.48 0.43 0.35 0.27 0.18 0.12 0.09 0.08 0.07 0.06 0.04 0.03 0.03
0.08 0.17 0.28 0.28 0.13 0.13 0.31 0.49 0.46 0.46 0.43 0.48 0.48 0.49 0.63 0.72 0.72 0.76 0.84 0.87 0.88 0.86 0.79 0.72 0.65 0.60 0.59 0.59 0.55 0.49 0.42 0.34 0.24 0.17 0.12 0.08 0.07 0.06 0.06 0.05 0.04 0.03 0.03 0.04
0.12 0.22 0.35 0.37 0.14 0.09 0.25 0.65 0.60 0.57 0.54 0.55 0.60 0.60 0.58 0.59 0.59 0.63 0.66 0.67 0.64 0.58 0.53 0.50 0.49 0.47 0.44 0.40 0.34 0.27 0.19 0.13 0.09 0.07 0.05 0.04 0.04 0.05 0.04 0.04 0.04 0.03 0.03 0.04
0.18 0.29 0.38 0.16 0.06 0.16 0.45 0.68 0.67 0.58 0.52 0.55 0.65 0.58 0.45 0.43 0.46 0.47 0.47 0.45 0.40 0.37 0.37 0.36 0.33 0.29 0.25 0.20 0.15 0.10 0.06 0.05 0.04 0.03 0.02 0.02 0.03 0.03 0.03 0.04 0.05 0.06 0.06 0.07
0.25 0.36 0.42 0.14 0.10 0.26 0.38 0.42 0.47 0.40 0.37 0.36 0.30 0.25 0.22 0.23 0.26 0.28 0.29 0.26 0.23 0.22 0.21 0.18 0.15 0.13 0.12 0.09 0.06 0.04 0.03 0.03 0.03 0.02 0.01 0.01 0.03 0.04 0.04 0.06 0.08 0.09 0.09 0.09
0.24 0.35 0.31 0.17 0.16 0.21 0.28 0.38 0.33 0.24 0.17 0.13 0.11 0.10 0.10 0.12 0.14 0.16 0.15 0.15 0.13 0.11 0.10 0.11 0.10 0.10 0.09 0.07 0.06 0.05 0.05 0.05 0.03 0.03 0.02 0.02 0.03 0.05 0.06 0.08 0.07 0.06 0.07 0.08
0.09 0.19 0.18 0.17 0.16 0.17 0.19 0.23 0.20 0.17 0.13 0.07 0.05 0.07 0.07 0.09 0.09 0.09 0.10 0.09 0.09 0.09 0.09 0.10 0.10 0.11 0.12 0.09 0.09 0.11 0.12 0.08 0.05 0.05 0.05 0.05 0.06 0.05 0.06 0.08 0.06 0.06 0.07 0.08
0.08 0.14 0.19 0.24 0.17 0.12 0.13 0.14 0.14 0.14 0.12 0.06 0.03 0.04 0.06 0.07 0.07 0.08 0.09 0.09 0.09 0.11 0.10 0.08 0.07 0.08 0.09 0.10 0.12 0.15 0.14 0.09 0.05 0.04 0.05 0.07 0.09 0.06 0.04 0.05 0.01 0.02 0.04 0.04
0.11 0.13 0.21 0.28 0.19 0.12 0.16 0.17 0.17 0.14 0.11 0.09 0.06 0.05 0.06 0.07 0.08 0.09 0.08 0.07 0.07 0.07 0.05 0.04 0.04 0.05 0.05 0.08 0.08 0.10 0.11 0.07 0.04 0.03 0.05 0.06 0.09 0.10 0.04 0.01 0.00 0.00 0.00 0.01
0.06 0.06 0.10 0.11 0.10 0.10 0.13 0.17 0.19 0.17 0.14 0.11 0.10 0.09 0.09 0.09 0.07 0.06 0.06 0.06 0.05 0.03 0.02 0.01 0.02 0.03 0.03 0.04 0.04 0.05 0.06 0.03 0.02 0.02 0.03 0.06 0.08 0.14 0.16 0.07 0.01 0.01 0.01 0.01
0.02 0.03 0.06 0.09 0.12 0.11 0.14 0.18 0.17 0.15 0.16 0.18 0.15 0.11 0.09 0.06 0.05 0.04 0.03 0.02 0.01 0.01 0.01 0.02 0.02 0.01 0.01 0.01 0.02 0.02 0.02 0.01 0.01 0.02 0.03 0.04 0.05 0.06 0.10 0.14 0.14 0.09 0.04 0.02
0.02 0.04 0.08 0.13 0.18 0.16 0.18 0.20 0.18 0.15 0.14 0.15 0.11 0.07 0.05 0.04 0.03 0.02 0.01 0.01 0.01 0.00 0.00 0.00 0.00 0.00 0.00 0.00 0.00 0.01 0.01 0.02 0.01 0.01 0.01 0.02 0.03 0.03 0.03 0.06 0.11 0.14 0.11 0.06
0.04 0.05 0.08 0.14 0.21 0.21 0.22 0.23 0.18 0.13 0.09 0.07 0.05 0.04 0.03 0.02 0.01 0.01 0.01 0.01 0.00 0.00 0.00 0.00 0.00 0.00 0.00 0.00 0.00 0.01 0.01 0.01 0.01 0.00 0.00 0.01 0.01 0.01 0.01 0.03 0.06 0.09 0.08 0.06
0.06 0.07 0.08 0.11 0.15 0.17 0.15 0.11 0.08 0.06 0.04 0.03 0.03 0.02 0.01 0.01 0.01 0.01 0.01 0.00 0.00 0.00 0.00 0.00 0.00 0.00 0.00 0.00 0.00 0.00 0.00 0.00 0.00 0.00 0.00 0.00 0.00 0.00 0.01 0.01 0.03 0.04 0.04 0.04
0.10 0.09 0.08 0.08 0.09 0.09 0.06 0.04 0.03 0.02 0.02 0.01 0.01 0.00 0.00 0.01 0.01 0.00 0.00 0.00 0.00 0.00 0.00 0.00 0.00 0.00 0.00 0.00 0.00 0.00 0.00 0.00 0.00 0.00 0.00 0.00 0.00 0.00 0.01 0.01 0.02 0.03 0.04 0.05
0.06 0.04 0.04 0.04 0.03 0.03 0.02 0.02 0.02 0.01 0.00 0.00 0.00 0.00 0.00 0.00 0.00 0.00 0.00 0.00 0.00 0.00 0.00 0.00 0.00 0.00 0.00 0.00 0.00 0.00 0.00 0.00 0.00 0.00 0.00 0.00 0.00 0.00 0.00 0.01 0.01 0.02 0.03 0.05
0.01 0.01 0.01 0.02 0.01 0.01 0.01 0.01 0.00 0.00 0.00 0.00 0.00 0.00 0.00 0.00 0.00 0.00 0.00 0.00 0.00 0.00 0.00 0.00 0.00 0.00 0.00 0.00 0.00 0.00 0.00 0.00 0.00 0.00 0.00 0.00 0.00 0.00 0.00 0.00 0.01 0.01 0.03 0.04
0.01 0.01 0.01 0.01 0.01 0.00 0.00 0.00 0.00 0.00 0.00 0.00 0.00 0.00 0.00 0.00 0.00 0.00 0.00 0.00 0.00 0.00 0.00 0.00 0.00 0.00 0.00 0.00 0.00 0.00 0.00 0.00 0.00 0.00 0.00 0.00 0.00 0.00 0.00 0.00 0.01 0.01 0.02 0.03
0.01 0.00 0.00 0.00 0.00 0.00 0.00 0.00 0.00 0.00 0.00 0.00 0.00 0.00 0.00 0.00 0.00 0.00 0.00 0.00 0.00 0.00 0.00 0.00 0.00 0.00 0.00 0.00 0.00 0.00 0.00 0.00 0.00 0.00 0.00 0.00 0.00 0.00 0.01 0.01 0.01 0.01 0.02 0.03
0.02 0.01 0.00 0.00 0.00 0.00 0.00 0.00 0.00 0.00 0.00 0.00 0.00 0.00 0.00 0.00 0.00 0.00 0.00 0.00 0.00 0.00 0.00 0.00 0.00 0.00 0.00 0.00 0.00 0.00 0.00 0.00 0.00 0.00 0.00 0.00 0.00 0.00 0.00 0.00 0.00 0.01 0.01 0.01
0.05 0.02 0.00 0.00 0.00 0.00 0.00 0.00 0.00 0.00 0.00 0.00 0.00 0.00 0.00 0.00 0.00 0.00 0.00 0.00 0.00 0.00 0.00 0.00 0.00 0.00 0.00 0.00 0.00 0.00 0.00 0.00 0.00 0.00 0.00 0.00 0.00 0.00 0.00 0.00 0.00 0.00 0.00 0.00
0.04 0.02 0.01 0.00 0.00 0.00 0.00 0.00 0.00 0.00 0.00 0.00 0.00 0.00 0.00 0.00 0.00 0.00 0.00 0.00 0.00 0.00 0.00 0.00 0.00 0.00 0.00 0.00 0.00 0.00 0.00 0.00 0.00 0.00 0.00 0.00 0.00 0.00 0.00 0.00 0.00 0.00 0.00 0.00
0.08 0.06 0.02 0.01 0.01 0.00 0.00 0.00 0.00 0.00 0.00 0.00 0.00 0.00 0.00 0.00 0.00 0.00 0.00 0.00 0.00 0.00 0.00 0.00 0.00 0.00 0.00 0.00 0.00 0.00 0.00 0.00 0.00 0.00 0.00 0.00 0.00 0.00 0.00 0.00 0.00 0.00 0.00 0.00
0.15 0.12 0.06 0.05 0.05 0.01 0.00 0.00 0.00 0.00 0.00 0.00 0.00 0.00 0.00 0.00 0.00 0.00 0.00 0.00 0.00 0.00 0.00 0.00 0.00 0.00 0.00 0.00 0.00 0.00 0.00 0.00 0.00 0.00 0.00 0.00 0.00 0.00 0.00 0.00 0.00 0.00 0.00 0.00

GEFSNGP_prec_meanprecacc_060.txt.gz
Total_Precipitation_Accumulation
0.23 0.21 0.17 0.15 0.12 0.10 0.09 0.10 0.25 0.50 0.72 1.02 1.18 1.14 1.13 1.07 0.83 0.61 0.50 0.50 0.54 0.56 0.49 0.42 0.38 0.34 0.31 0.30 0.27 0.25 0.25 0.26 0.26 0.26 0.26 0.27 0.29 0.30 0.30 0.29 0.26 0.23 0.20 0.16
0.17 0.14 0.17 0.21 0.20 0.20 0.23 0.27 0.37 0.61 0.91 1.34 1.46 1.32 1.27 1.21 1.00 0.79 0.70 0.68 0.66 0.63 0.59 0.55 0.51 0.47 0.43 0.40 0.38 0.37 0.38 0.39 0.39 0.38 0.38 0.36 0.33 0.29 0.25 0.21 0.16 0.12 0.09 0.06
0.23 0.17 0.22 0.37 0.32 0.26 0.30 0.38 0.50 0.71 0.93 1.13 1.24 1.29 1.31 1.37 1.25 1.02 0.89 0.84 0.80 0.76 0.72 0.68 0.65 0.61 0.57 0.54 0.51 0.49 0.49 0.49 0.48 0.45 0.39 0.31 0.22 0.16 0.13 0.10 0.08 0.06 0.04 0.03
0.17 0.21 0.44 0.42 0.21 0.23 0.34 0.37 0.46 0.53 0.65 0.83 0.89 0.96 1.01 1.05 1.02 0.95 0.88 0.86 0.84 0.83 0.82 0.77 0.71 0.66 0.62 0.59 0.55 0.53 0.51 0.48 0.43 0.35 0.27 0.18 0.12 0.09 0.08 0.07 0.06 0.04 0.03 0.03
0.14 0.25 0.41 0.36 0.18 0.16 0.33 0.51 0.49 0.49 0.46 0.50 0.53 0.56 0.71 0.82 0.80 0.83 0.89 0.91 0.90 0.88 0.81 0.73 0.66 0.61 0.60 0.59 0.55 0.49 0.43 0.34 0.25 0.17 0.12 0.08 0.07 0.07 0.06 0.05 0.04 0.03 0.03 0.04
0.16 0.27 0.44 0.44 0.18 0.11 0.26 0.68 0.66 0.61 0.56 0.58 0.63 0.64 0.64 0.67 0.66 0.69 0.71 0.72 0.68 0.61 0.55 0.52 0.51 0.48 0.45 0.41 0.34 0.28 0.19 0.13 0.10 0.07 0.05 0.05 0.05 0.05 0.04 0.04 0.04 0.04 0.04 0.05
0.20 0.33 0.41 0.18 0.07 0.17 0.48 0.71 0.71 0.62 0.55 0.58 0.69 0.63 0.48 0.46 0.49 0.51 0.51 0.50 0.45 0.41 0.40 0.38 0.34 0.30 0.25 0.20 0.16 0.11 0.07 0.05 0.04 0.03 0.02 0.02 0.03 0.03 0.03 0.04 0.06 0.06 0.07 0.07
0.27 0.39 0.43 0.15 0.11 0.27 0.39 0.43 0.48 0.43 0.41 0.40 0.34 0.27 0.23 0.24 0.28 0.31 0.32 0.30 0.27 0.25 0.23 0.20 0.17 0.14 0.13 0.10 0.07 0.04 0.03 0.03 0.03 0.02 0.01 0.01 0.03 0.04 0.04 0.06 0.08 0.09 0.09 0.09
0.24 0.36 0.32 0.17 0.16 0.21 0.28 0.38 0.34 0.26 0.19 0.15 0.12 0.11 0.11 0.13 0.16 0.18 0.18 0.18 0.16 0.13 0.12 0.13 0.12 0.11 0.10 0.08 0.06 0.05 0.06 0.05 0.03 0.03 0.02 0.02 0.04 0.05 0.06 0.08 0.08 0.06 0.07 0.08
0.09 0.19 0.19 0.17 0.16 0.17 0.19 0.24 0.21 0.17 0.13 0.07 0.05 0.07 0.09 0.11 0.11 0.11 0.12 0.11 0.11 0.10 0.11 0.12 0.12 0.12 0.12 0.10 0.09 0.11 0.12 0.08 0.05 0.05 0.05 0.05 0.06 0.05 0.06 0.08 0.06 0.06 0.08 0.08
0.08 0.14 0.19 0.24 0.17 0.12 0.13 0.14 0.14 0.14 0.12 0.06 0.03 0.05 0.07 0.09 0.09 0.10 0.11 0.11 0.10 0.12 0.12 0.09 0.08 0.09 0.09 0.10 0.12 0.15 0.14 0.09 0.05 0.04 0.06 0.07 0.09 0.06 0.04 0.05 0.01 0.02 0.04 0.04
0.11 0.13 0.21 0.28 0.19 0.12 0.16 0.17 0.17 0.14 0.11 0.09 0.06 0.05 0.06 0.08 0.10 0.10 0.09 0.08 0.08 0.08 0.06 0.05 0.05 0.06 0.06 0.08 0.09 0.10 0.11 0.07 0.04 0.03 0.05 0.06 0.09 0.10 0.04 0.01 0.00 0.00 0.00 0.01
0.06 0.06 0.10 0.11 0.10 0.10 0.13 0.17 0.19 0.17 0.14 0.11 0.10 0.09 0.10 0.10 0.08 0.07 0.06 0.06 0.06 0.03 0.02 0.02 0.02 0.04 0.04 0.04 0.04 0.05 0.06 0.03 0.02 0.03 0.04 0.06 0.08 0.14 0.16 0.07 0.01 0.01 0.01 0.01
0.02 0.03 0.06 0.09 0.12 0.11 0.14 0.18 0.17 0.15 0.17 0.18 0.15 0.11 0.09 0.07 0.05 0.04 0.04 0.02 0.01 0.01 0.01 0.02 0.02 0.02 0.01 0.02 0.02 0.02 0.02 0.01 0.01 0.03 0.03 0.04 0.05 0.07 0.10 0.14 0.14 0.09 0.04 0.02
0.02 0.04 0.08 0.13 0.18 0.16 0.18 0.20 0.19 0.15 0.15 0.16 0.11 0.07 0.05 0.04 0.03 0.02 0.01 0.01 0.01 0.01 0.01 0.00 0.00 0.00 0.00 0.00 0.01 0.01 0.01 0.02 0.01 0.01 0.01 0.02 0.03 0.03 0.03 0.06 0.11 0.14 0.11 0.06
0.04 0.05 0.08 0.14 0.21 0.21 0.22 0.23 0.18 0.13 0.09 0.07 0.05 0.04 0.03 0.02 0.01 0.01 0.01 0.01 0.01 0.00 0.00 0.00 0.00 0.00 0.00 0.00 0.00 0.01 0.01 0.01 0.01 0.00 0.00 0.01 0.01 0.01 0.01 0.03 0.06 0.09 0.09 0.06
0.06 0.07 0.08 0.11 0.15 0.17 0.15 0.11 0.08 0.06 0.04 0.03 0.03 0.02 0.01 0.01 0.01 0.01 0.01 0.00 0.00 0.00 0.00 0.00 0.00 0.00 0.00 0.00 0.00 0.00 0.01 0.00 0.00 0.00 0.00 0.00 0.00 0.00 0.01 0.01 0.03 0.04 0.04 0.04
0.10 0.09 0.08 0.08 0.09 0.09 0.06 0.04 0.03 0.02 0.02 0.01 0.01 0.00 0.01 0.01 0.01 0.00 0.00 0.00 0.00 0.00 0.00 0.00 0.00 0.00 0.00 0.00 0.00 0.00 0.00 0.00 0.00 0.00 0.00 0.00 0.00 0.00 0.01 0.01 0.02 0.03 0.04 0.05
0.06 0.04 0.04 0.04 0.03 0.03 0.02 0.02 0.02 0.01 0.00 0.00 0.00 0.00 0.00 0.00 0.00 0.00 0.00 0.00 0.00 0.00 0.00 0.00 0.00 0.00 0.00 0.00 0.00 0.00 0.00 0.00 0.00 0.00 0.00 0.00 0.00 0.00 0.00 0.01 0.01 0.02 0.03 0.05
0.01 0.01 0.01 0.02 0.01 0.01 0.01 0.01 0.00 0.00 0.00 0.00 0.00 0.00 0.00 0.00 0.00 0.00 0.00 0.00 0.00 0.00 0.00 0.00 0.00 0.00 0.00 0.00 0.00 0.00 0.00 0.00 0.00 0.00 0.00 0.00 0.00 0.00 0.00 0.00 0.01 0.02 0.03 0.04
0.01 0.01 0.01 0.01 0.01 0.00 0.00 0.00 0.00 0.00 0.00 0.00 0.00 0.00 0.00 0.00 0.00 0.00 0.00 0.00 0.00 0.00 0.00 0.00 0.00 0.00 0.00 0.00 0.00 0.00 0.00 0.00 0.00 0.00 0.00 0.00 0.00 0.00 0.00 0.00 0.01 0.01 0.02 0.03
0.01 0.00 0.00 0.00 0.00 0.00 0.00 0.00 0.00 0.00 0.00 0.00 0.00 0.00 0.00 0.00 0.00 0.00 0.00 0.00 0.00 0.00 0.00 0.00 0.00 0.00 0.00 0.00 0.00 0.00 0.00 0.00 0.00 0.00 0.00 0.00 0.00 0.00 0.01 0.01 0.01 0.01 0.02 0.03
0.02 0.01 0.00 0.00 0.00 0.00 0.00 0.00 0.00 0.00 0.00 0.00 0.00 0.00 0.00 0.00 0.00 0.00 0.00 0.00 0.00 0.00 0.00 0.00 0.00 0.00 0.00 0.00 0.00 0.00 0.00 0.00 0.00 0.00 0.00 0.00 0.00 0.00 0.00 0.00 0.00 0.01 0.01 0.01
0.05 0.02 0.00 0.00 0.00 0.00 0.00 0.00 0.00 0.00 0.00 0.00 0.00 0.00 0.00 0.00 0.00 0.00 0.00 0.00 0.00 0.00 0.00 0.00 0.00 0.00 0.00 0.00 0.00 0.00 0.00 0.00 0.00 0.00 0.00 0.00 0.00 0.00 0.00 0.00 0.00 0.00 0.00 0.00
0.04 0.02 0.01 0.00 0.00 0.00 0.00 0.00 0.00 0.00 0.00 0.00 0.00 0.00 0.00 0.00 0.00 0.00 0.00 0.00 0.00 0.00 0.00 0.00 0.00 0.00 0.00 0.00 0.00 0.00 0.00 0.00 0.00 0.00 0.00 0.00 0.00 0.00 0.00 0.00 0.00 0.00 0.00 0.00
0.08 0.06 0.02 0.01 0.01 0.00 0.00 0.00 0.00 0.00 0.00 0.00 0.00 0.00 0.00 0.00 0.00 0.00 0.00 0.00 0.00 0.00 0.00 0.00 0.00 0.00 0.00 0.00 0.00 0.00 0.00 0.00 0.00 0.00 0.00 0.00 0.00 0.00 0.00 0.00 0.00 0.00 0.00 0.00
0.15 0.12 0.06 0.05 0.05 0.01 0.00 0.00 0.00 0.00 0.00 0.00 0.00 0.00 0.00 0.00 0.00 0.00 0.00 0.00 0.00 0.00 0.00 0.00 0.00 0.00 0.00 0.00 0.00 0.00 0.00 0.00 0.00 0.00 0.00 0.00 0.00 0.00 0.00 0.00 0.00 0.00 0.00 0.00

GEFSNGP_prec_meanprecacc_066.txt.gz
Total_Precipitation_Accumulation
0.24 0.22 0.18 0.17 0.14 0.11 0.09 0.10 0.26 0.52 0.73 1.03 1.21 1.19 1.19 1.15 0.94 0.75 0.63 0.59 0.62 0.62 0.55 0.46 0.41 0.36 0.33 0.32 0.29 0.27 0.26 0.27 0.27 0.27 0.27 0.28 0.30 0.31 0.31 0.29 0.27 0.23 0.20 0.16
0.19 0.16 0.19 0.23 0.22 0.21 0.24 0.28 0.38 0.62 0.92 1.35 1.49 1.37 1.31 1.26 1.09 0.93 0.84 0.80 0.76 0.70 0.64 0.59 0.54 0.49 0.45 0.42 0.39 0.38 0.39 0.40 0.40 0.39 0.38 0.36 0.33 0.29 0.25 0.21 0.16 0.12 0.09 0.06
0.24 0.19 0.24 0.38 0.33 0.27 0.31 0.39 0.51 0.72 0.94 1.15 1.27 1.33 1.36 1.42 1.33 1.12 1.00 0.94 0.90 0.87 0.80 0.73 0.68 0.62 0.58 0.55 0.51 0.49 0.49 0.50 0.49 0.45 0.39 0.31 0.22 0.16 0.13 0.10 0.08 0.06 0.04 0.03
0.18 0.23 0.46 0.43 0.22 0.25 0.35 0.39 0.48 0.54 0.66 0.84 0.92 1.00 1.07 1.12 1.11 1.05 0.96 0.93 0.91 0.89 0.88 0.82 0.75 0.68 0.63 0.59 0.56 0.53 0.51 0.49 0.43 0.35 0.27 0.18 0.12 0.09 0.08 0.07 0.06 0.04 0.03 0.03
0.15 0.26 0.42 0.37 0.19 0.18 0.36 0.54 0.51 0.50 0.47 0.52 0.55 0.59 0.77 0.89 0.91 0.94 1.00 1.00 0.97 0.91 0.82 0.75 0.68 0.63 0.61 0.60 0.56 0.49 0.43 0.34 0.25 0.17 0.12 0.08 0.07 0.07 0.06 0.05 0.04 0.03 0.03 0.04
0.16 0.29 0.44 0.44 0.19 0.12 0.28 0.72 0.70 0.63 0.58 0.59 0.65 0.67 0.69 0.73 0.74 0.80 0.84 0.83 0.76 0.66 0.57 0.53 0.52 0.49 0.45 0.41 0.35 0.28 0.20 0.13 0.10 0.07 0.05 0.05 0.05 0.05 0.04 0.04 0.04 0.04 0.04 0.05
0.20 0.33 0.41 0.18 0.08 0.18 0.49 0.74 0.78 0.65 0.57 0.60 0.72 0.66 0.52 0.50 0.55 0.57 0.60 0.58 0.52 0.46 0.43 0.40 0.36 0.31 0.26 0.21 0.16 0.11 0.07 0.05 0.04 0.03 0.02 0.02 0.03 0.03 0.03 0.04 0.06 0.06 0.07 0.07
0.27 0.39 0.43 0.15 0.11 0.28 0.40 0.44 0.52 0.47 0.44 0.43 0.38 0.32 0.28 0.28 0.32 0.35 0.36 0.35 0.32 0.30 0.27 0.23 0.19 0.15 0.14 0.11 0.07 0.04 0.03 0.03 0.03 0.02 0.01 0.01 0.03 0.04 0.04 0.06 0.08 0.09 0.09 0.09
0.24 0.36 0.32 0.17 0.16 0.21 0.28 0.39 0.36 0.28 0.21 0.16 0.14 0.13 0.13 0.16 0.18 0.21 0.21 0.22 0.21 0.17 0.15 0.15 0.13 0.12 0.10 0.08 0.06 0.05 0.06 0.05 0.03 0.03 0.02 0.02 0.04 0.05 0.06 0.08 0.08 0.06 0.07 0.08
0.09 0.19 0.19 0.17 0.16 0.17 0.19 0.24 0.21 0.17 0.13 0.07 0.06 0.08 0.10 0.12 0.14 0.14 0.15 0.14 0.13 0.13 0.13 0.13 0.13 0.13 0.12 0.10 0.09 0.11 0.12 0.08 0.05 0.05 0.05 0.05 0.06 0.05 0.06 0.08 0.06 0.06 0.08 0.08
0.08 0.14 0.19 0.24 0.17 0.13 0.13 0.14 0.14 0.14 0.12 0.07 0.03 0.05 0.08 0.10 0.11 0.12 0.13 0.13 0.12 0.13 0.12 0.10 0.09 0.09 0.10 0.10 0.12 0.15 0.14 0.09 0.05 0.04 0.06 0.07 0.09 0.06 0.04 0.05 0.01 0.02 0.04 0.04
0.11 0.13 0.21 0.28 0.19 0.12 0.16 0.17 0.17 0.14 0.11 0.09 0.06 0.06 0.06 0.09 0.12 0.12 0.11 0.09 0.09 0.09 0.06 0.05 0.06 0.06 0.07 0.09 0.09 0.10 0.11 0.07 0.04 0.03 0.05 0.06 0.09 0.10 0.04 0.01 0.00 0.00 0.00 0.01
0.06 0.06 0.10 0.11 0.10 0.10 0.13 0.17 0.19 0.17 0.14 0.11 0.10 0.10 0.10 0.10 0.09 0.08 0.07 0.06 0.06 0.04 0.02 0.02 0.03 0.04 0.05 0.05 0.05 0.06 0.06 0.03 0.02 0.03 0.04 0.06 0.08 0.14 0.16 0.07 0.01 0.01 0.01 0.01
0.02 0.03 0.06 0.09 0.12 0.11 0.14 0.18 0.17 0.15 0.17 0.18 0.15 0.11 0.09 0.07 0.05 0.05 0.04 0.02 0.01 0.01 0.01 0.02 0.02 0.02 0.02 0.02 0.03 0.03 0.03 0.01 0.01 0.03 0.03 0.04 0.05 0.07 0.10 0.14 0.14 0.09 0.04 0.02
0.02 0.04 0.08 0.13 0.18 0.16 0.18 0.20 0.19 0.15 0.15 0.16 0.11 0.07 0.05 0.04 0.03 0.02 0.01 0.01 0.01 0.01 0.01 0.01 0.01 0.01 0.00 0.01 0.01 0.01 0.01 0.02 0.02 0.01 0.01 0.02 0.03 0.03 0.03 0.06 0.11 0.14 0.11 0.06
0.04 0.05 0.08 0.14 0.21 0.21 0.22 0.23 0.18 0.13 0.09 0.07 0.05 0.04 0.03 0.02 0.01 0.01 0.01 0.01 0.01 0.00 0.00 0.00 0.00 0.00 0.00 0.00 0.00 0.01 0.01 0.01 0.01 0.00 0.00 0.01 0.01 0.01 0.01 0.03 0.06 0.09 0.09 0.06
0.06 0.07 0.08 0.11 0.15 0.17 0.15 0.11 0.08 0.06 0.04 0.03 0.03 0.02 0.01 0.01 0.01 0.01 0.01 0.00 0.00 0.00 0.00 0.00 0.00 0.00 0.00 0.00 0.00 0.00 0.01 0.01 0.00 0.00 0.00 0.00 0.00 0.00 0.01 0.01 0.03 0.04 0.04 0.04
0.10 0.09 0.08 0.08 0.09 0.09 0.06 0.04 0.03 0.02 0.02 0.01 0.01 0.00 0.01 0.01 0.01 0.00 0.00 0.00 0.00 0.00 0.00 0.00 0.00 0.00 0.00 0.00 0.00 0.00 0.00 0.00 0.00 0.00 0.00 0.00 0.00 0.00 0.01 0.01 0.02 0.03 0.04 0.05
0.06 0.04 0.04 0.04 0.03 0.03 0.02 0.02 0.02 0.01 0.00 0.00 0.00 0.00 0.00 0.00 0.00 0.00 0.00 0.00 0.00 0.00 0.00 0.00 0.00 0.00 0.00 0.00 0.00 0.00 0.00 0.00 0.00 0.00 0.00 0.00 0.00 0.00 0.00 0.01 0.01 0.02 0.03 0.05
0.01 0.01 0.01 0.02 0.01 0.01 0.01 0.01 0.00 0.00 0.00 0.00 0.00 0.00 0.00 0.00 0.00 0.00 0.00 0.00 0.00 0.00 0.00 0.00 0.00 0.00 0.00 0.00 0.00 0.00 0.00 0.00 0.00 0.00 0.00 0.00 0.00 0.00 0.00 0.00 0.01 0.02 0.03 0.04
0.01 0.01 0.01 0.01 0.01 0.00 0.00 0.00 0.00 0.00 0.00 0.00 0.00 0.00 0.00 0.00 0.00 0.00 0.00 0.00 0.00 0.00 0.00 0.00 0.00 0.00 0.00 0.00 0.00 0.00 0.00 0.00 0.00 0.00 0.00 0.00 0.00 0.00 0.00 0.00 0.01 0.01 0.02 0.03
0.01 0.00 0.00 0.00 0.00 0.00 0.00 0.00 0.00 0.00 0.00 0.00 0.00 0.00 0.00 0.00 0.00 0.00 0.00 0.00 0.00 0.00 0.00 0.00 0.00 0.00 0.00 0.00 0.00 0.00 0.00 0.00 0.00 0.00 0.00 0.00 0.00 0.00 0.01 0.01 0.01 0.01 0.02 0.03
0.02 0.01 0.00 0.00 0.00 0.00 0.00 0.00 0.00 0.00 0.00 0.00 0.00 0.00 0.00 0.00 0.00 0.00 0.00 0.00 0.00 0.00 0.00 0.00 0.00 0.00 0.00 0.00 0.00 0.00 0.00 0.00 0.00 0.00 0.00 0.00 0.00 0.00 0.00 0.00 0.00 0.01 0.01 0.01
0.05 0.02 0.00 0.00 0.00 0.00 0.00 0.00 0.00 0.00 0.00 0.00 0.00 0.00 0.00 0.00 0.00 0.00 0.00 0.00 0.00 0.00 0.00 0.00 0.00 0.00 0.00 0.00 0.00 0.00 0.00 0.00 0.00 0.00 0.00 0.00 0.00 0.00 0.00 0.00 0.00 0.00 0.00 0.00
0.04 0.02 0.01 0.00 0.00 0.00 0.00 0.00 0.00 0.00 0.00 0.00 0.00 0.00 0.00 0.00 0.00 0.00 0.00 0.00 0.00 0.00 0.00 0.00 0.00 0.00 0.00 0.00 0.00 0.00 0.00 0.00 0.00 0.00 0.00 0.00 0.00 0.00 0.00 0.00 0.00 0.00 0.00 0.00
0.08 0.06 0.02 0.01 0.01 0.00 0.00 0.00 0.00 0.00 0.00 0.00 0.00 0.00 0.00 0.00 0.00 0.00 0.00 0.00 0.00 0.00 0.00 0.00 0.00 0.00 0.00 0.00 0.00 0.00 0.00 0.00 0.00 0.00 0.00 0.00 0.00 0.00 0.00 0.00 0.00 0.00 0.00 0.00
0.15 0.12 0.06 0.05 0.05 0.01 0.00 0.00 0.00 0.00 0.00 0.00 0.00 0.00 0.00 0.00 0.00 0.00 0.00 0.00 0.00 0.00 0.00 0.00 0.00 0.00 0.00 0.00 0.00 0.00 0.00 0.00 0.00 0.00 0.00 0.00 0.00 0.00 0.00 0.00 0.00 0.00 0.00 0.00